Observation data for Stamford on 11/19/2019      Previous  Date  Next       Current Mesonet Observations  Soil Data  Daily Summary Page  Observations in Plain Language
KST2 190600Z 22004KT 09/04 A2995 RMK A01 T00860042  RH  073%=      5-min Rain = 0
KST2 190601Z 22004KT 09/04 A2995 RMK A01 T00870042  RH  073%=      5-min Rain = 0
KST2 190602Z 22004KT 09/04 A2995 RMK A01 T00870042  RH  073%=      5-min Rain = 0
KST2 190603Z 22004KT 09/04 A2995 RMK A01 T00870042  RH  073%=      5-min Rain = 0
KST2 190604Z 22004KT 09/04 A2995 RMK A01 T00870041  RH  073%=      5-min Rain = 0
KST2 190605Z 22004KT 09/04 A2995 RMK A01 T00860041  RH  073%=      5-min Rain = 0
KST2 190606Z 22004KT 09/04 A2995 RMK A01 T00860041  RH  073%=      5-min Rain = 0
KST2 190607Z 21004KT 09/04 A2995 RMK A01 T00860041  RH  074%=      5-min Rain = 0
KST2 190608Z 21004KT 09/04 A2995 RMK A01 T00850041  RH  074%=      5-min Rain = 0
KST2 190609Z 21004KT 09/04 A2995 RMK A01 T00850041  RH  074%=      5-min Rain = 0
KST2 190610Z 21004KT 09/04 A2995 RMK A01 T00850041  RH  074%=      5-min Rain = 0
KST2 190611Z 21004KT 09/04 A2995 RMK A01 T00850041  RH  074%=      5-min Rain = 0
KST2 190612Z 21004KT 08/04 A2995 RMK A01 T00840041  RH  074%=      5-min Rain = 0
KST2 190613Z 21004KT 08/04 A2995 RMK A01 T00840041  RH  074%=      5-min Rain = 0
KST2 190614Z 21004KT 08/04 A2995 RMK A01 T00840040  RH  074%=      5-min Rain = 0
KST2 190615Z 21004KT 09/04 A2995 RMK A01 T00850041  RH  074%=      5-min Rain = 0
KST2 190616Z 21004KT 09/04 A2995 RMK A01 T00850041  RH  074%=      5-min Rain = 0
KST2 190617Z 21004KT 09/04 A2995 RMK A01 T00850041  RH  074%=      5-min Rain = 0
KST2 190618Z 21004KT 09/04 A2995 RMK A01 T00860041  RH  073%=      5-min Rain = 0
KST2 190619Z 21004KT 09/04 A2995 RMK A01 T00860041  RH  073%=      5-min Rain = 0
KST2 190620Z 21004KT 09/04 A2995 RMK A01 T00860042  RH  074%=      5-min Rain = 0
KST2 190621Z 21004KT 09/04 A2995 RMK A01 T00860041  RH  074%=      5-min Rain = 0
KST2 190622Z 21004KT 09/04 A2995 RMK A01 T00850041  RH  074%=      5-min Rain = 0
KST2 190623Z 21004KT 09/04 A2995 RMK A01 T00850041  RH  074%=      5-min Rain = 0
KST2 190624Z 21003KT 09/04 A2995 RMK A01 T00850041  RH  074%=      5-min Rain = 0
KST2 190625Z 21003KT 09/04 A2994 RMK A01 T00850041  RH  074%=      5-min Rain = 0
KST2 190626Z 21003KT 09/04 A2994 RMK A01 T00850042  RH  074%=      5-min Rain = 0
KST2 190627Z 21003KT 09/04 A2994 RMK A01 T00850042  RH  074%=      5-min Rain = 0
KST2 190628Z 21003KT 09/04 A2994 RMK A01 T00850042  RH  075%=      5-min Rain = 0
KST2 190629Z 21003KT 08/04 A2994 RMK A01 T00840042  RH  075%=      5-min Rain = 0
KST2 190630Z 21003KT 08/04 A2994 RMK A01 T00830042  RH  075%=      5-min Rain = 0
KST2 190631Z 20003KT 08/04 A2994 RMK A01 T00820041  RH  075%=      5-min Rain = 0
KST2 190632Z 20004KT 08/04 A2995 RMK A01 T00820042  RH  075%=      5-min Rain = 0
KST2 190633Z 19003KT 08/04 A2995 RMK A01 T00820041  RH  075%=      5-min Rain = 0
KST2 190634Z 19003KT 08/04 A2994 RMK A01 T00810040  RH  075%=      5-min Rain = 0
KST2 190635Z 20004KT 08/04 A2994 RMK A01 T00800039  RH  075%=      5-min Rain = 0
KST2 190636Z 20003KT 08/04 A2994 RMK A01 T00790038  RH  076%=      5-min Rain = 0
KST2 190637Z 20003KT 08/04 A2994 RMK A01 T00780038  RH  076%=      5-min Rain = 0
KST2 190638Z 20003KT 08/04 A2994 RMK A01 T00770038  RH  076%=      5-min Rain = 0
KST2 190639Z 20003KT 08/04 A2994 RMK A01 T00760038  RH  077%=      5-min Rain = 0
KST2 190640Z 20004KT 08/04 A2994 RMK A01 T00760038  RH  077%=      5-min Rain = 0
KST2 190641Z 20004KT 08/04 A2994 RMK A01 T00770039  RH  077%=      5-min Rain = 0
KST2 190642Z 20004KT 08/04 A2994 RMK A01 T00770039  RH  077%=      5-min Rain = 0
KST2 190643Z 20004KT 08/04 A2994 RMK A01 T00780039  RH  077%=      5-min Rain = 0
KST2 190644Z 19004KT 08/04 A2994 RMK A01 T00780039  RH  076%=      5-min Rain = 0
KST2 190645Z 19003KT 08/04 A2994 RMK A01 T00780039  RH  076%=      5-min Rain = 0
KST2 190646Z 19003KT 08/04 A2994 RMK A01 T00780039  RH  076%=      5-min Rain = 0
KST2 190647Z 18003KT 08/04 A2994 RMK A01 T00780039  RH  077%=      5-min Rain = 0
KST2 190648Z 17003KT 08/04 A2994 RMK A01 T00770039  RH  077%=      5-min Rain = 0
KST2 190649Z 18003KT 08/04 A2994 RMK A01 T00760038  RH  077%=      5-min Rain = 0
KST2 190650Z 18003KT 08/04 A2994 RMK A01 T00760038  RH  077%=      5-min Rain = 0
KST2 190651Z 17002KT 08/04 A2994 RMK A01 T00750038  RH  077%=      5-min Rain = 0
KST2 190652Z 17003KT 07/04 A2994 RMK A01 T00740037  RH  077%=      5-min Rain = 0
KST2 190653Z 17003KT 07/04 A2994 RMK A01 T00740037  RH  077%=      5-min Rain = 0
KST2 190654Z 17002KT 07/04 A2994 RMK A01 T00730037  RH  078%=      5-min Rain = 0
KST2 190655Z 17003KT 07/04 A2994 RMK A01 T00730036  RH  078%=      5-min Rain = 0
KST2 190656Z 18003KT 07/04 A2994 RMK A01 T00720037  RH  078%=      5-min Rain = 0
KST2 190657Z 19003KT 07/04 A2994 RMK A01 T00720037  RH  078%=      5-min Rain = 0
KST2 190658Z 18004KT 07/04 A2994 RMK A01 T00720037  RH  078%=      5-min Rain = 0
KST2 190659Z 18004KT 07/04 A2994 RMK A01 T00720037  RH  078%=      5-min Rain = 0
KST2 190700Z 18004KT 07/04 A2994 RMK A01 T00720037  RH  078%=      5-min Rain = 0
KST2 190701Z 18004KT 07/04 A2994 RMK A01 T00720037  RH  078%=      5-min Rain = 0
KST2 190702Z 18004KT 07/04 A2994 RMK A01 T00720037  RH  078%=      5-min Rain = 0
KST2 190703Z 18004KT 07/04 A2994 RMK A01 T00720037  RH  078%=      5-min Rain = 0
KST2 190704Z 17004KT 07/04 A2994 RMK A01 T00720037  RH  078%=      5-min Rain = 0
KST2 190705Z 17003KT 07/04 A2994 RMK A01 T00720037  RH  078%=      5-min Rain = 0
KST2 190706Z 17003KT 07/04 A2994 RMK A01 T00720037  RH  078%=      5-min Rain = 0
KST2 190707Z 18003KT 07/04 A2994 RMK A01 T00720037  RH  078%=      5-min Rain = 0
KST2 190708Z 19003KT 07/04 A2994 RMK A01 T00720037  RH  078%=      5-min Rain = 0
KST2 190709Z 19003KT 07/04 A2994 RMK A01 T00720037  RH  078%=      5-min Rain = 0
KST2 190710Z 19003KT 07/04 A2994 RMK A01 T00730038  RH  078%=      5-min Rain = 0
KST2 190711Z 19002KT 07/04 A2994 RMK A01 T00740038  RH  078%=      5-min Rain = 0
KST2 190712Z 19002KT 07/04 A2994 RMK A01 T00740038  RH  078%=      5-min Rain = 0
KST2 190713Z 19002KT 07/04 A2994 RMK A01 T00740037  RH  078%=      5-min Rain = 0
KST2 190714Z 19002KT 07/04 A2994 RMK A01 T00740038  RH  078%=      5-min Rain = 0
KST2 190715Z 19002KT 07/04 A2994 RMK A01 T00740038  RH  078%=      5-min Rain = 0
KST2 190716Z 20002KT 07/04 A2994 RMK A01 T00730038  RH  078%=      5-min Rain = 0
KST2 190717Z 21002KT 07/04 A2994 RMK A01 T00740038  RH  078%=      5-min Rain = 0
KST2 190718Z 22002KT 08/04 A2994 RMK A01 T00750039  RH  078%=      5-min Rain = 0
KST2 190719Z 22002KT 08/04 A2994 RMK A01 T00750039  RH  078%=      5-min Rain = 0
KST2 190720Z 23002KT 08/04 A2994 RMK A01 T00750039  RH  078%=      5-min Rain = 0
KST2 190721Z 23002KT 08/04 A2994 RMK A01 T00750040  RH  078%=      5-min Rain = 0
KST2 190722Z 23002KT 08/04 A2994 RMK A01 T00750040  RH  078%=      5-min Rain = 0
KST2 190723Z 23001KT 08/04 A2994 RMK A01 T00750040  RH  078%=      5-min Rain = 0
KST2 190724Z 23002KT 08/04 A2994 RMK A01 T00750040  RH  078%=      5-min Rain = 0
KST2 190725Z 23002KT 08/04 A2994 RMK A01 T00750040  RH  078%=      5-min Rain = 0
KST2 190726Z 23002KT 08/04 A2994 RMK A01 T00750039  RH  078%=      5-min Rain = 0
KST2 190727Z 22002KT 08/04 A2994 RMK A01 T00750040  RH  079%=      5-min Rain = 0
KST2 190728Z 22002KT 08/04 A2994 RMK A01 T00750040  RH  079%=      5-min Rain = 0
KST2 190729Z 21002KT 08/04 A2994 RMK A01 T00750040  RH  079%=      5-min Rain = 0
KST2 190730Z 21002KT 08/04 A2994 RMK A01 T00760041  RH  079%=      5-min Rain = 0
KST2 190731Z 21002KT 08/04 A2994 RMK A01 T00760041  RH  078%=      5-min Rain = 0
KST2 190732Z 21003KT 08/04 A2994 RMK A01 T00760041  RH  078%=      5-min Rain = 0
KST2 190733Z 21003KT 08/04 A2994 RMK A01 T00770042  RH  078%=      5-min Rain = 0
KST2 190734Z 21003KT 08/04 A2994 RMK A01 T00780042  RH  078%=      5-min Rain = 0
KST2 190735Z 21002KT 08/04 A2994 RMK A01 T00790042  RH  077%=      5-min Rain = 0
KST2 190736Z 21003KT 08/04 A2994 RMK A01 T00810042  RH  077%=      5-min Rain = 0
KST2 190737Z 21003KT 08/04 A2994 RMK A01 T00820043  RH  076%=      5-min Rain = 0
KST2 190738Z 21003KT 08/04 A2994 RMK A01 T00830043  RH  076%=      5-min Rain = 0
KST2 190739Z 21003KT 08/04 A2994 RMK A01 T00830043  RH  076%=      5-min Rain = 0
KST2 190740Z 21003KT 08/04 A2994 RMK A01 T00840043  RH  075%=      5-min Rain = 0
KST2 190741Z 21003KT 08/04 A2994 RMK A01 T00840043  RH  075%=      5-min Rain = 0
KST2 190742Z 20003KT 08/04 A2994 RMK A01 T00840043  RH  075%=      5-min Rain = 0
KST2 190743Z 20002KT 08/04 A2994 RMK A01 T00840043  RH  075%=      5-min Rain = 0
KST2 190744Z 20003KT 08/04 A2994 RMK A01 T00830042  RH  075%=      5-min Rain = 0
KST2 190745Z 20003KT 08/04 A2994 RMK A01 T00830042  RH  076%=      5-min Rain = 0
KST2 190746Z 20003KT 08/04 A2994 RMK A01 T00830043  RH  076%=      5-min Rain = 0
KST2 190747Z 20003KT 08/04 A2994 RMK A01 T00820042  RH  076%=      5-min Rain = 0
KST2 190748Z 20003KT 08/04 A2994 RMK A01 T00810041  RH  076%=      5-min Rain = 0
KST2 190749Z 20003KT 08/04 A2994 RMK A01 T00800041  RH  076%=      5-min Rain = 0
KST2 190750Z 20003KT 08/04 A2994 RMK A01 T00790041  RH  077%=      5-min Rain = 0
KST2 190751Z 20003KT 08/04 A2994 RMK A01 T00780041  RH  078%=      5-min Rain = 0
KST2 190752Z 20002KT 08/04 A2994 RMK A01 T00780041  RH  078%=      5-min Rain = 0
KST2 190753Z 20002KT 08/04 A2994 RMK A01 T00780042  RH  078%=      5-min Rain = 0
KST2 190754Z 19003KT 08/04 A2994 RMK A01 T00770041  RH  078%=      5-min Rain = 0
KST2 190755Z 19003KT 08/04 A2994 RMK A01 T00770041  RH  078%=      5-min Rain = 0
KST2 190756Z 18003KT 08/04 A2994 RMK A01 T00770041  RH  078%=      5-min Rain = 0
KST2 190757Z 18003KT 08/04 A2994 RMK A01 T00770040  RH  078%=      5-min Rain = 0
KST2 190758Z 18002KT 08/04 A2994 RMK A01 T00780041  RH  077%=      5-min Rain = 0
KST2 190759Z 18002KT 08/04 A2994 RMK A01 T00780041  RH  077%=      5-min Rain = 0
KST2 190800Z 18002KT 08/04 A2994 RMK A01 T00780041  RH  077%=      5-min Rain = 0
KST2 190801Z 18001KT 08/04 A2994 RMK A01 T00780041  RH  077%=      5-min Rain = 0
KST2 190802Z 19001KT 08/04 A2994 RMK A01 T00780041  RH  077%=      5-min Rain = 0
KST2 190803Z 19001KT 08/04 A2994 RMK A01 T00780041  RH  077%=      5-min Rain = 0
KST2 190804Z 19001KT 08/04 A2994 RMK A01 T00780041  RH  077%=      5-min Rain = 0
KST2 190805Z 19001KT 08/04 A2994 RMK A01 T00780040  RH  077%=      5-min Rain = 0
KST2 190806Z 19002KT 08/04 A2994 RMK A01 T00780040  RH  077%=      5-min Rain = 0
KST2 190807Z 19002KT 08/04 A2994 RMK A01 T00780041  RH  077%=      5-min Rain = 0
KST2 190808Z 19002KT 08/04 A2994 RMK A01 T00780040  RH  077%=      5-min Rain = 0
KST2 190809Z 19002KT 08/04 A2994 RMK A01 T00780040  RH  077%=      5-min Rain = 0
KST2 190810Z 19002KT 08/04 A2994 RMK A01 T00780040  RH  077%=      5-min Rain = 0
KST2 190811Z 19001KT 08/04 A2994 RMK A01 T00780040  RH  077%=      5-min Rain = 0
KST2 190812Z 19002KT 08/04 A2995 RMK A01 T00780040  RH  077%=      5-min Rain = 0
KST2 190813Z 19002KT 08/04 A2995 RMK A01 T00780040  RH  077%=      5-min Rain = 0
KST2 190814Z 19002KT 08/04 A2995 RMK A01 T00780040  RH  077%=      5-min Rain = 0
KST2 190815Z 19002KT 08/04 A2995 RMK A01 T00780040  RH  077%=      5-min Rain = 0
KST2 190816Z 19002KT 08/04 A2995 RMK A01 T00780040  RH  077%=      5-min Rain = 0
KST2 190817Z 19002KT 08/04 A2995 RMK A01 T00790040  RH  077%=      5-min Rain = 0
KST2 190818Z 19002KT 08/04 A2995 RMK A01 T00790040  RH  076%=      5-min Rain = 0
KST2 190819Z 19003KT 08/04 A2995 RMK A01 T00790040  RH  076%=      5-min Rain = 0
KST2 190820Z 18003KT 08/04 A2995 RMK A01 T00790040  RH  076%=      5-min Rain = 0
KST2 190821Z 18003KT 08/04 A2995 RMK A01 T00790040  RH  076%=      5-min Rain = 0
KST2 190822Z 18002KT 08/04 A2995 RMK A01 T00790041  RH  077%=      5-min Rain = 0
KST2 190823Z 18003KT 08/04 A2995 RMK A01 T00790040  RH  077%=      5-min Rain = 0
KST2 190824Z 18003KT 08/04 A2995 RMK A01 T00790040  RH  077%=      5-min Rain = 0
KST2 190825Z 18003KT 08/04 A2995 RMK A01 T00780040  RH  077%=      5-min Rain = 0
KST2 190826Z 17003KT 08/04 A2994 RMK A01 T00780040  RH  077%=      5-min Rain = 0
KST2 190827Z 17003KT 08/04 A2994 RMK A01 T00780040  RH  077%=      5-min Rain = 0
KST2 190828Z 17003KT 08/04 A2995 RMK A01 T00770040  RH  077%=      5-min Rain = 0
KST2 190829Z 17003KT 08/04 A2995 RMK A01 T00760040  RH  078%=      5-min Rain = 0
KST2 190830Z 17003KT 08/04 A2995 RMK A01 T00760040  RH  078%=      5-min Rain = 0
KST2 190831Z 17003KT 08/04 A2995 RMK A01 T00750040  RH  078%=      5-min Rain = 0
KST2 190832Z 16003KT 08/04 A2994 RMK A01 T00750040  RH  078%=      5-min Rain = 0
KST2 190833Z 16003KT 07/04 A2994 RMK A01 T00740040  RH  079%=      5-min Rain = 0
KST2 190834Z 16003KT 08/04 A2994 RMK A01 T00750040  RH  079%=      5-min Rain = 0
KST2 190835Z 16003KT 08/04 A2994 RMK A01 T00750040  RH  079%=      5-min Rain = 0
KST2 190836Z 16003KT 08/04 A2994 RMK A01 T00750041  RH  079%=      5-min Rain = 0
KST2 190837Z 16003KT 07/04 A2994 RMK A01 T00740040  RH  079%=      5-min Rain = 0
KST2 190838Z 16003KT 07/04 A2994 RMK A01 T00740040  RH  079%=      5-min Rain = 0
KST2 190839Z 16003KT 07/04 A2994 RMK A01 T00730040  RH  079%=      5-min Rain = 0
KST2 190840Z 16003KT 07/04 A2994 RMK A01 T00720039  RH  079%=      5-min Rain = 0
KST2 190841Z 16003KT 07/04 A2994 RMK A01 T00710038  RH  079%=      5-min Rain = 0
KST2 190842Z 16003KT 07/04 A2994 RMK A01 T00700037  RH  080%=      5-min Rain = 0
KST2 190843Z 16003KT 07/04 A2994 RMK A01 T00690037  RH  080%=      5-min Rain = 0
KST2 190844Z 16003KT 07/04 A2994 RMK A01 T00680037  RH  080%=      5-min Rain = 0
KST2 190845Z 16003KT 07/04 A2994 RMK A01 T00670036  RH  081%=      5-min Rain = 0
KST2 190846Z 16003KT 07/04 A2994 RMK A01 T00670036  RH  081%=      5-min Rain = 0
KST2 190847Z 16003KT 07/04 A2994 RMK A01 T00660035  RH  081%=      5-min Rain = 0
KST2 190848Z 16003KT 07/04 A2994 RMK A01 T00660035  RH  081%=      5-min Rain = 0
KST2 190849Z 16003KT 07/03 A2994 RMK A01 T00650034  RH  081%=      5-min Rain = 0
KST2 190850Z 16003KT 07/03 A2995 RMK A01 T00650034  RH  081%=      5-min Rain = 0
KST2 190851Z 16003KT 06/03 A2995 RMK A01 T00640033  RH  081%=      5-min Rain = 0
KST2 190852Z 16003KT 06/03 A2995 RMK A01 T00640033  RH  081%=      5-min Rain = 0
KST2 190853Z 16003KT 06/03 A2995 RMK A01 T00630033  RH  081%=      5-min Rain = 0
KST2 190854Z 15003KT 06/03 A2995 RMK A01 T00630033  RH  081%=      5-min Rain = 0
KST2 190855Z 15003KT 06/03 A2995 RMK A01 T00620033  RH  081%=      5-min Rain = 0
KST2 190856Z 15003KT 06/03 A2995 RMK A01 T00620032  RH  081%=      5-min Rain = 0
KST2 190857Z 15003KT 06/03 A2995 RMK A01 T00620033  RH  082%=      5-min Rain = 0
KST2 190858Z 15003KT 06/03 A2995 RMK A01 T00620033  RH  082%=      5-min Rain = 0
KST2 190859Z 15002KT 06/03 A2995 RMK A01 T00610032  RH  082%=      5-min Rain = 0
KST2 190900Z 15003KT 06/03 A2995 RMK A01 T00610032  RH  082%=      5-min Rain = 0
KST2 190901Z 15003KT 06/03 A2995 RMK A01 T00610033  RH  082%=      5-min Rain = 0
KST2 190902Z 15003KT 06/03 A2995 RMK A01 T00610033  RH  082%=      5-min Rain = 0
KST2 190903Z 15003KT 06/03 A2995 RMK A01 T00610033  RH  082%=      5-min Rain = 0
KST2 190904Z 16003KT 06/03 A2995 RMK A01 T00610033  RH  082%=      5-min Rain = 0
KST2 190905Z 16003KT 06/03 A2995 RMK A01 T00610033  RH  082%=      5-min Rain = 0
KST2 190906Z 17004KT 06/03 A2995 RMK A01 T00610033  RH  082%=      5-min Rain = 0
KST2 190907Z 17003KT 06/03 A2995 RMK A01 T00610033  RH  082%=      5-min Rain = 0
KST2 190908Z 17004KT 06/03 A2995 RMK A01 T00610033  RH  082%=      5-min Rain = 0
KST2 190909Z 17003KT 06/03 A2995 RMK A01 T00610033  RH  082%=      5-min Rain = 0
KST2 190910Z 18003KT 06/03 A2995 RMK A01 T00610033  RH  082%=      5-min Rain = 0
KST2 190911Z 18003KT 06/03 A2995 RMK A01 T00610032  RH  082%=      5-min Rain = 0
KST2 190912Z 18003KT 06/03 A2995 RMK A01 T00610032  RH  082%=      5-min Rain = 0
KST2 190913Z 18003KT 06/03 A2995 RMK A01 T00610032  RH  082%=      5-min Rain = 0
KST2 190914Z 18003KT 06/03 A2995 RMK A01 T00610032  RH  082%=      5-min Rain = 0
KST2 190915Z 18003KT 06/03 A2995 RMK A01 T00610032  RH  082%=      5-min Rain = 0
KST2 190916Z 18004KT 06/03 A2995 RMK A01 T00610032  RH  082%=      5-min Rain = 0
KST2 190917Z 19004KT 06/03 A2995 RMK A01 T00610032  RH  082%=      5-min Rain = 0
KST2 190918Z 19004KT 06/03 A2995 RMK A01 T00610032  RH  082%=      5-min Rain = 0
KST2 190919Z 19004KT 06/03 A2995 RMK A01 T00610032  RH  082%=      5-min Rain = 0
KST2 190920Z 19003KT 06/03 A2995 RMK A01 T00610032  RH  082%=      5-min Rain = 0
KST2 190921Z 18004KT 06/03 A2995 RMK A01 T00610033  RH  082%=      5-min Rain = 0
KST2 190922Z 18004KT 06/03 A2994 RMK A01 T00610033  RH  082%=      5-min Rain = 0
KST2 190923Z 18004KT 06/03 A2994 RMK A01 T00610033  RH  082%=      5-min Rain = 0
KST2 190924Z 18004KT 06/03 A2994 RMK A01 T00610033  RH  082%=      5-min Rain = 0
KST2 190925Z 19003KT 06/03 A2994 RMK A01 T00610034  RH  082%=      5-min Rain = 0
KST2 190926Z 19003KT 06/03 A2994 RMK A01 T00610034  RH  083%=      5-min Rain = 0
KST2 190927Z 19003KT 06/03 A2994 RMK A01 T00610034  RH  083%=      5-min Rain = 0
KST2 190928Z 19003KT 06/04 A2994 RMK A01 T00610035  RH  083%=      5-min Rain = 0
KST2 190929Z 20003KT 06/04 A2994 RMK A01 T00620035  RH  083%=      5-min Rain = 0
KST2 190930Z 20003KT 06/04 A2994 RMK A01 T00620036  RH  083%=      5-min Rain = 0
KST2 190931Z 20003KT 06/04 A2994 RMK A01 T00620036  RH  083%=      5-min Rain = 0
KST2 190932Z 20003KT 06/04 A2994 RMK A01 T00620036  RH  083%=      5-min Rain = 0
KST2 190933Z 20003KT 06/04 A2994 RMK A01 T00630035  RH  083%=      5-min Rain = 0
KST2 190934Z 20003KT 06/04 A2994 RMK A01 T00630035  RH  082%=      5-min Rain = 0
KST2 190935Z 20003KT 06/04 A2994 RMK A01 T00640035  RH  082%=      5-min Rain = 0
KST2 190936Z 20002KT 07/04 A2994 RMK A01 T00650035  RH  082%=      5-min Rain = 0
KST2 190937Z 20002KT 06/04 A2994 RMK A01 T00640035  RH  082%=      5-min Rain = 0
KST2 190938Z 20003KT 06/04 A2994 RMK A01 T00640035  RH  082%=      5-min Rain = 0
KST2 190939Z 20003KT 07/04 A2994 RMK A01 T00650035  RH  081%=      5-min Rain = 0
KST2 190940Z 20003KT 07/04 A2994 RMK A01 T00650035  RH  081%=      5-min Rain = 0
KST2 190941Z 20003KT 07/04 A2994 RMK A01 T00650035  RH  081%=      5-min Rain = 0
KST2 190942Z 19004KT 07/04 A2994 RMK A01 T00650035  RH  081%=      5-min Rain = 0
KST2 190943Z 19004KT 07/04 A2994 RMK A01 T00660035  RH  081%=      5-min Rain = 0
KST2 190944Z 19004KT 07/04 A2994 RMK A01 T00660036  RH  081%=      5-min Rain = 0
KST2 190945Z 19004KT 07/04 A2994 RMK A01 T00660036  RH  081%=      5-min Rain = 0
KST2 190946Z 19004KT 07/04 A2994 RMK A01 T00650036  RH  081%=      5-min Rain = 0
KST2 190947Z 18004KT 07/04 A2994 RMK A01 T00650036  RH  082%=      5-min Rain = 0
KST2 190948Z 18004KT 07/04 A2994 RMK A01 T00650036  RH  082%=      5-min Rain = 0
KST2 190949Z 18004KT 07/04 A2994 RMK A01 T00650036  RH  082%=      5-min Rain = 0
KST2 190950Z 18004KT 06/04 A2994 RMK A01 T00640036  RH  082%=      5-min Rain = 0
KST2 190951Z 18004KT 06/04 A2994 RMK A01 T00640036  RH  082%=      5-min Rain = 0
KST2 190952Z 18004KT 06/04 A2994 RMK A01 T00640036  RH  082%=      5-min Rain = 0
KST2 190953Z 18003KT 06/04 A2994 RMK A01 T00630035  RH  082%=      5-min Rain = 0
KST2 190954Z 18004KT 06/04 A2994 RMK A01 T00630035  RH  083%=      5-min Rain = 0
KST2 190955Z 17004KT 06/04 A2994 RMK A01 T00620035  RH  083%=      5-min Rain = 0
KST2 190956Z 18004KT 06/04 A2994 RMK A01 T00620036  RH  083%=      5-min Rain = 0
KST2 190957Z 18004KT 06/04 A2994 RMK A01 T00610035  RH  084%=      5-min Rain = 0
KST2 190958Z 18004KT 06/04 A2994 RMK A01 T00610035  RH  084%=      5-min Rain = 0
KST2 190959Z 18004KT 06/03 A2994 RMK A01 T00600034  RH  084%=      5-min Rain = 0
KST2 191000Z 18004KT 06/03 A2994 RMK A01 T00590033  RH  084%=      5-min Rain = 0
KST2 191001Z 18004KT 06/03 A2994 RMK A01 T00580033  RH  084%=      5-min Rain = 0
KST2 191002Z 18004KT 06/03 A2994 RMK A01 T00580032  RH  084%=      5-min Rain = 0
KST2 191003Z 18004KT 06/03 A2994 RMK A01 T00570032  RH  084%=      5-min Rain = 0
KST2 191004Z 18004KT 06/03 A2994 RMK A01 T00570032  RH  084%=      5-min Rain = 0
KST2 191005Z 18004KT 06/03 A2994 RMK A01 T00560032  RH  084%=      5-min Rain = 0
KST2 191006Z 18004KT 06/03 A2994 RMK A01 T00560032  RH  084%=      5-min Rain = 0
KST2 191007Z 18004KT 06/03 A2994 RMK A01 T00560032  RH  085%=      5-min Rain = 0
KST2 191008Z 18004KT 06/03 A2994 RMK A01 T00560032  RH  085%=      5-min Rain = 0
KST2 191009Z 18004KT 06/03 A2994 RMK A01 T00560032  RH  085%=      5-min Rain = 0
KST2 191010Z 18004KT 06/03 A2994 RMK A01 T00560032  RH  085%=      5-min Rain = 0
KST2 191011Z 18004KT 06/03 A2994 RMK A01 T00560032  RH  085%=      5-min Rain = 0
KST2 191012Z 19004KT 06/03 A2994 RMK A01 T00560032  RH  085%=      5-min Rain = 0
KST2 191013Z 19004KT 06/03 A2994 RMK A01 T00560032  RH  085%=      5-min Rain = 0
KST2 191014Z 19004KT 06/03 A2994 RMK A01 T00560032  RH  085%=      5-min Rain = 0
KST2 191015Z 19004KT 06/03 A2994 RMK A01 T00560032  RH  085%=      5-min Rain = 0
KST2 191016Z 19004KT 06/03 A2994 RMK A01 T00560031  RH  084%=      5-min Rain = 0
KST2 191017Z 19004KT 06/03 A2994 RMK A01 T00560031  RH  084%=      5-min Rain = 0
KST2 191018Z 18004KT 06/03 A2994 RMK A01 T00550031  RH  084%=      5-min Rain = 0
KST2 191019Z 18004KT 06/03 A2994 RMK A01 T00550031  RH  084%=      5-min Rain = 0
KST2 191020Z 18004KT 06/03 A2994 RMK A01 T00550031  RH  084%=      5-min Rain = 0
KST2 191021Z 18005KT 06/03 A2994 RMK A01 T00550031  RH  084%=      5-min Rain = 0
KST2 191022Z 18005KT 06/03 A2994 RMK A01 T00560031  RH  084%=      5-min Rain = 0
KST2 191023Z 18005KT 06/03 A2994 RMK A01 T00560031  RH  084%=      5-min Rain = 0
KST2 191024Z 18005KT 06/03 A2994 RMK A01 T00560031  RH  084%=      5-min Rain = 0
KST2 191025Z 18005KT 06/03 A2994 RMK A01 T00560032  RH  084%=      5-min Rain = 0
KST2 191026Z 18005KT 06/03 A2994 RMK A01 T00560031  RH  084%=      5-min Rain = 0
KST2 191027Z 18005KT 06/03 A2994 RMK A01 T00560031  RH  084%=      5-min Rain = 0
KST2 191028Z 18005KT 06/03 A2994 RMK A01 T00560032  RH  084%=      5-min Rain = 0
KST2 191029Z 18005KT 06/03 A2994 RMK A01 T00560032  RH  084%=      5-min Rain = 0
KST2 191030Z 18005KT 06/03 A2994 RMK A01 T00560032  RH  085%=      5-min Rain = 0
KST2 191031Z 18005KT 06/03 A2994 RMK A01 T00570033  RH  085%=      5-min Rain = 0
KST2 191032Z 18005KT 06/03 A2994 RMK A01 T00560032  RH  084%=      5-min Rain = 0
KST2 191033Z 18005KT 06/03 A2994 RMK A01 T00570032  RH  084%=      5-min Rain = 0
KST2 191034Z 18005KT 06/03 A2994 RMK A01 T00570032  RH  084%=      5-min Rain = 0
KST2 191035Z 19005KT 06/03 A2994 RMK A01 T00570033  RH  084%=      5-min Rain = 0
KST2 191036Z 19005KT 06/03 A2994 RMK A01 T00570033  RH  084%=      5-min Rain = 0
KST2 191037Z 19005KT 06/03 A2994 RMK A01 T00570033  RH  084%=      5-min Rain = 0
KST2 191038Z 19005KT 06/03 A2994 RMK A01 T00570033  RH  085%=      5-min Rain = 0
KST2 191039Z 19006KT 06/03 A2994 RMK A01 T00570034  RH  085%=      5-min Rain = 0
KST2 191040Z 19006KT 06/03 A2994 RMK A01 T00570034  RH  085%=      5-min Rain = 0
KST2 191041Z 19006KT 06/03 A2994 RMK A01 T00570033  RH  085%=      5-min Rain = 0
KST2 191042Z 19006KT 06/03 A2994 RMK A01 T00570033  RH  085%=      5-min Rain = 0
KST2 191043Z 19006KT 06/03 A2994 RMK A01 T00570033  RH  085%=      5-min Rain = 0
KST2 191044Z 19005KT 06/03 A2994 RMK A01 T00570033  RH  085%=      5-min Rain = 0
KST2 191045Z 19005KT 06/03 A2994 RMK A01 T00570033  RH  084%=      5-min Rain = 0
KST2 191046Z 19005KT 06/03 A2994 RMK A01 T00570032  RH  084%=      5-min Rain = 0
KST2 191047Z 19005KT 06/03 A2994 RMK A01 T00570033  RH  084%=      5-min Rain = 0
KST2 191048Z 19005KT 06/03 A2994 RMK A01 T00570033  RH  084%=      5-min Rain = 0
KST2 191049Z 19005KT 06/03 A2994 RMK A01 T00570033  RH  084%=      5-min Rain = 0
KST2 191050Z 19005KT 06/03 A2994 RMK A01 T00570033  RH  085%=      5-min Rain = 0
KST2 191051Z 19005KT 06/03 A2994 RMK A01 T00570033  RH  085%=      5-min Rain = 0
KST2 191052Z 19005KT 06/03 A2994 RMK A01 T00570033  RH  085%=      5-min Rain = 0
KST2 191053Z 18005KT 06/03 A2994 RMK A01 T00570033  RH  085%=      5-min Rain = 0
KST2 191054Z 18005KT 06/03 A2994 RMK A01 T00560032  RH  085%=      5-min Rain = 0
KST2 191055Z 18005KT 06/03 A2994 RMK A01 T00560032  RH  085%=      5-min Rain = 0
KST2 191056Z 18005KT 06/03 A2994 RMK A01 T00550032  RH  085%=      5-min Rain = 0
KST2 191057Z 18004KT 06/03 A2994 RMK A01 T00550031  RH  085%=      5-min Rain = 0
KST2 191058Z 18004KT 05/03 A2994 RMK A01 T00540031  RH  085%=      5-min Rain = 0
KST2 191059Z 18004KT 05/03 A2994 RMK A01 T00540031  RH  085%=      5-min Rain = 0
KST2 191100Z 18004KT 05/03 A2994 RMK A01 T00540031  RH  085%=      5-min Rain = 0
KST2 191101Z 18004KT 05/03 A2994 RMK A01 T00540031  RH  085%=      5-min Rain = 0
KST2 191102Z 18004KT 05/03 A2994 RMK A01 T00540031  RH  085%=      5-min Rain = 0
KST2 191103Z 18003KT 05/03 A2994 RMK A01 T00540031  RH  085%=      5-min Rain = 0
KST2 191104Z 18002KT 06/03 A2994 RMK A01 T00550031  RH  085%=      5-min Rain = 0
KST2 191105Z 18001KT 06/03 A2994 RMK A01 T00550031  RH  084%=      5-min Rain = 0
KST2 191106Z 18001KT 06/03 A2994 RMK A01 T00550030  RH  084%=      5-min Rain = 0
KST2 191107Z 18001KT 06/03 A2994 RMK A01 T00550031  RH  084%=      5-min Rain = 0
KST2 191108Z 18001KT 06/03 A2995 RMK A01 T00550031  RH  084%=      5-min Rain = 0
KST2 191109Z 00000KT 06/03 A2995 RMK A01 T00550030  RH  084%=      5-min Rain = 0
KST2 191110Z 00000KT 05/03 A2995 RMK A01 T00540029  RH  084%=      5-min Rain = 0
KST2 191111Z 00000KT 05/03 A2995 RMK A01 T00530028  RH  084%=      5-min Rain = 0
KST2 191112Z 00000KT 05/03 A2995 RMK A01 T00510027  RH  084%=      5-min Rain = 0
KST2 191113Z 00000KT 05/03 A2995 RMK A01 T00500026  RH  084%=      5-min Rain = 0
KST2 191114Z 00000KT 05/03 A2995 RMK A01 T00490026  RH  085%=      5-min Rain = 0
KST2 191115Z 11001KT 05/03 A2995 RMK A01 T00480025  RH  085%=      5-min Rain = 0
KST2 191116Z 10001KT 05/03 A2995 RMK A01 T00470025  RH  085%=      5-min Rain = 0
KST2 191117Z 09002KT 05/02 A2995 RMK A01 T00460024  RH  086%=      5-min Rain = 0
KST2 191118Z 08002KT 04/02 A2995 RMK A01 T00440023  RH  086%=      5-min Rain = 0
KST2 191119Z 07002KT 04/02 A2995 RMK A01 T00440023  RH  087%=      5-min Rain = 0
KST2 191120Z 07002KT 04/02 A2995 RMK A01 T00430023  RH  087%=      5-min Rain = 0
KST2 191121Z 07002KT 04/02 A2995 RMK A01 T00430023  RH  087%=      5-min Rain = 0
KST2 191122Z 07002KT 04/02 A2995 RMK A01 T00430024  RH  087%=      5-min Rain = 0
KST2 191123Z 07002KT 04/02 A2995 RMK A01 T00430024  RH  087%=      5-min Rain = 0
KST2 191124Z 07002KT 04/02 A2995 RMK A01 T00430024  RH  087%=      5-min Rain = 0
KST2 191125Z 07003KT 04/02 A2995 RMK A01 T00430024  RH  087%=      5-min Rain = 0
KST2 191126Z 07003KT 04/02 A2995 RMK A01 T00430024  RH  087%=      5-min Rain = 0
KST2 191127Z 07002KT 04/02 A2995 RMK A01 T00430024  RH  087%=      5-min Rain = 0
KST2 191128Z 07002KT 04/02 A2995 RMK A01 T00430024  RH  087%=      5-min Rain = 0
KST2 191129Z 07002KT 04/02 A2995 RMK A01 T00430024  RH  087%=      5-min Rain = 0
KST2 191130Z 07002KT 04/02 A2995 RMK A01 T00430024  RH  087%=      5-min Rain = 0
KST2 191131Z 07002KT 04/02 A2995 RMK A01 T00430024  RH  088%=      5-min Rain = 0
KST2 191132Z 07001KT 04/03 A2995 RMK A01 T00440025  RH  088%=      5-min Rain = 0
KST2 191133Z 07002KT 04/03 A2995 RMK A01 T00440025  RH  088%=      5-min Rain = 0
KST2 191134Z 07002KT 04/03 A2995 RMK A01 T00440025  RH  088%=      5-min Rain = 0
KST2 191135Z 07002KT 04/03 A2995 RMK A01 T00440025  RH  088%=      5-min Rain = 0
KST2 191136Z 07002KT 04/03 A2995 RMK A01 T00440025  RH  088%=      5-min Rain = 0
KST2 191137Z 07002KT 04/03 A2995 RMK A01 T00440025  RH  088%=      5-min Rain = 0
KST2 191138Z 07003KT 04/03 A2995 RMK A01 T00440025  RH  087%=      5-min Rain = 0
KST2 191139Z 07002KT 04/03 A2995 RMK A01 T00440025  RH  087%=      5-min Rain = 0
KST2 191140Z 07002KT 04/03 A2995 RMK A01 T00440025  RH  087%=      5-min Rain = 0
KST2 191141Z 07002KT 04/02 A2995 RMK A01 T00430024  RH  087%=      5-min Rain = 0
KST2 191142Z 07002KT 04/02 A2995 RMK A01 T00430024  RH  087%=      5-min Rain = 0
KST2 191143Z 03003KT 04/02 A2995 RMK A01 T00420023  RH  088%=      5-min Rain = 0
KST2 191144Z 01004KT 04/02 A2995 RMK A01 T00410024  RH  089%=      5-min Rain = 0
KST2 191145Z 01004KT 04/03 A2996 RMK A01 T00420026  RH  089%=      5-min Rain = 0
KST2 191146Z 01003KT 04/03 A2996 RMK A01 T00430027  RH  090%=      5-min Rain = 0
KST2 191147Z 00004KT 04/03 A2996 RMK A01 T00430028  RH  090%=      5-min Rain = 0
KST2 191148Z 00004KT 04/03 A2996 RMK A01 T00440028  RH  090%=      5-min Rain = 0
KST2 191149Z 00004KT 04/03 A2996 RMK A01 T00440029  RH  090%=      5-min Rain = 0
KST2 191150Z 00004KT 04/03 A2996 RMK A01 T00440029  RH  089%=      5-min Rain = 0
KST2 191151Z 00004KT 05/03 A2996 RMK A01 T00450029  RH  089%=      5-min Rain = 0
KST2 191152Z 00004KT 05/03 A2996 RMK A01 T00450029  RH  089%=      5-min Rain = 0
KST2 191153Z 00004KT 05/03 A2996 RMK A01 T00460030  RH  089%=      5-min Rain = 0
KST2 191154Z 00004KT 05/03 A2996 RMK A01 T00460030  RH  089%=      5-min Rain = 0
KST2 191155Z 00003KT 05/03 A2996 RMK A01 T00460030  RH  089%=      5-min Rain = 0
KST2 191156Z 00003KT 05/03 A2996 RMK A01 T00460029  RH  089%=      5-min Rain = 0
KST2 191157Z 00004KT 05/03 A2996 RMK A01 T00460030  RH  089%=      5-min Rain = 0
KST2 191158Z 00003KT 05/03 A2996 RMK A01 T00470030  RH  089%=      5-min Rain = 0
KST2 191159Z 00002KT 05/03 A2996 RMK A01 T00470030  RH  089%=      5-min Rain = 0
KST2 191200Z 00002KT 05/03 A2996 RMK A01 T00480030  RH  088%=      5-min Rain = 0
KST2 191201Z 00002KT 05/03 A2996 RMK A01 T00480030  RH  088%=      5-min Rain = 0
KST2 191202Z 00002KT 05/03 A2996 RMK A01 T00480029  RH  088%=      5-min Rain = 0
KST2 191203Z 00002KT 05/03 A2996 RMK A01 T00480029  RH  087%=      5-min Rain = 0
KST2 191204Z 00002KT 05/03 A2996 RMK A01 T00480028  RH  087%=      5-min Rain = 0
KST2 191205Z 00002KT 05/03 A2996 RMK A01 T00480028  RH  087%=      5-min Rain = 0
KST2 191206Z 00002KT 05/03 A2996 RMK A01 T00470027  RH  087%=      5-min Rain = 0
KST2 191207Z 00002KT 05/03 A2996 RMK A01 T00460026  RH  087%=      5-min Rain = 0
KST2 191208Z 00002KT 05/03 A2996 RMK A01 T00450025  RH  087%=      5-min Rain = 0
KST2 191209Z 00002KT 04/02 A2996 RMK A01 T00440024  RH  087%=      5-min Rain = 0
KST2 191210Z 00002KT 04/03 A2996 RMK A01 T00440025  RH  087%=      5-min Rain = 0
KST2 191211Z 00002KT 05/03 A2996 RMK A01 T00450026  RH  088%=      5-min Rain = 0
KST2 191212Z 00002KT 05/03 A2996 RMK A01 T00460028  RH  088%=      5-min Rain = 0
KST2 191213Z 00002KT 05/03 A2996 RMK A01 T00480030  RH  088%=      5-min Rain = 0
KST2 191214Z 00002KT 05/03 A2996 RMK A01 T00500032  RH  088%=      5-min Rain = 0
KST2 191215Z 01002KT 05/03 A2996 RMK A01 T00520033  RH  087%=      5-min Rain = 0
KST2 191216Z 01002KT 05/03 A2996 RMK A01 T00530032  RH  087%=      5-min Rain = 0
KST2 191217Z 01001KT 05/03 A2996 RMK A01 T00530032  RH  086%=      5-min Rain = 0
KST2 191218Z 02001KT 05/03 A2996 RMK A01 T00530031  RH  085%=      5-min Rain = 0
KST2 191219Z 02002KT 05/03 A2996 RMK A01 T00520029  RH  085%=      5-min Rain = 0
KST2 191220Z 02001KT 05/03 A2996 RMK A01 T00500027  RH  085%=      5-min Rain = 0
KST2 191221Z 02001KT 05/03 A2996 RMK A01 T00500027  RH  085%=      5-min Rain = 0
KST2 191222Z 02001KT 05/03 A2996 RMK A01 T00480026  RH  085%=      5-min Rain = 0
KST2 191223Z 02001KT 05/03 A2997 RMK A01 T00480026  RH  086%=      5-min Rain = 0
KST2 191224Z 03001KT 05/03 A2997 RMK A01 T00480026  RH  086%=      5-min Rain = 0
KST2 191225Z 04001KT 05/03 A2997 RMK A01 T00470026  RH  086%=      5-min Rain = 0
KST2 191226Z 04001KT 05/03 A2997 RMK A01 T00470026  RH  086%=      5-min Rain = 0
KST2 191227Z 04001KT 05/03 A2997 RMK A01 T00470026  RH  087%=      5-min Rain = 0
KST2 191228Z 04001KT 05/03 A2996 RMK A01 T00470027  RH  087%=      5-min Rain = 0
KST2 191229Z 04001KT 05/03 A2996 RMK A01 T00480029  RH  088%=      5-min Rain = 0
KST2 191230Z 04001KT 05/03 A2996 RMK A01 T00490030  RH  088%=      5-min Rain = 0
KST2 191231Z 04001KT 05/03 A2997 RMK A01 T00510032  RH  088%=      5-min Rain = 0
KST2 191232Z 06001KT 05/03 A2997 RMK A01 T00510031  RH  087%=      5-min Rain = 0
KST2 191233Z 09002KT 05/03 A2997 RMK A01 T00520030  RH  086%=      5-min Rain = 0
KST2 191234Z 10003KT 05/03 A2997 RMK A01 T00520030  RH  086%=      5-min Rain = 0
KST2 191235Z 11003KT 05/03 A2997 RMK A01 T00510028  RH  086%=      5-min Rain = 0
KST2 191236Z 12003KT 05/03 A2997 RMK A01 T00490027  RH  086%=      5-min Rain = 0
KST2 191237Z 13003KT 05/03 A2997 RMK A01 T00480026  RH  086%=      5-min Rain = 0
KST2 191238Z 13003KT 05/03 A2997 RMK A01 T00470026  RH  086%=      5-min Rain = 0
KST2 191239Z 13003KT 05/03 A2997 RMK A01 T00470027  RH  087%=      5-min Rain = 0
KST2 191240Z 13003KT 05/03 A2997 RMK A01 T00470026  RH  087%=      5-min Rain = 0
KST2 191241Z 13002KT 05/03 A2997 RMK A01 T00460026  RH  087%=      5-min Rain = 0
KST2 191242Z 13002KT 05/03 A2997 RMK A01 T00460026  RH  087%=      5-min Rain = 0
KST2 191243Z 13002KT 05/03 A2997 RMK A01 T00450025  RH  087%=      5-min Rain = 0
KST2 191244Z 13002KT 05/03 A2997 RMK A01 T00450025  RH  087%=      5-min Rain = 0
KST2 191245Z 13002KT 05/03 A2997 RMK A01 T00450025  RH  087%=      5-min Rain = 0
KST2 191246Z 13003KT 05/03 A2997 RMK A01 T00450025  RH  087%=      5-min Rain = 0
KST2 191247Z 13003KT 04/03 A2997 RMK A01 T00440025  RH  087%=      5-min Rain = 0
KST2 191248Z 13003KT 04/03 A2997 RMK A01 T00440025  RH  088%=      5-min Rain = 0
KST2 191249Z 14003KT 04/03 A2997 RMK A01 T00440025  RH  088%=      5-min Rain = 0
KST2 191250Z 14003KT 04/03 A2997 RMK A01 T00440025  RH  087%=      5-min Rain = 0
KST2 191251Z 14003KT 04/03 A2997 RMK A01 T00440025  RH  087%=      5-min Rain = 0
KST2 191252Z 14003KT 04/03 A2997 RMK A01 T00440025  RH  087%=      5-min Rain = 0
KST2 191253Z 14003KT 04/03 A2997 RMK A01 T00440025  RH  087%=      5-min Rain = 0
KST2 191254Z 14004KT 04/03 A2997 RMK A01 T00440025  RH  087%=      5-min Rain = 0
KST2 191255Z 14004KT 04/03 A2997 RMK A01 T00440025  RH  088%=      5-min Rain = 0
KST2 191256Z 14004KT 04/03 A2997 RMK A01 T00440026  RH  088%=      5-min Rain = 0
KST2 191257Z 14004KT 05/03 A2997 RMK A01 T00450027  RH  088%=      5-min Rain = 0
KST2 191258Z 15004KT 05/03 A2997 RMK A01 T00460027  RH  088%=      5-min Rain = 0
KST2 191259Z 15004KT 05/03 A2997 RMK A01 T00460027  RH  088%=      5-min Rain = 0
KST2 191300Z 15004KT 05/03 A2997 RMK A01 T00460027  RH  087%=      5-min Rain = 0
KST2 191301Z 15004KT 05/03 A2997 RMK A01 T00450026  RH  087%=      5-min Rain = 0
KST2 191302Z 15004KT 05/03 A2997 RMK A01 T00450026  RH  087%=      5-min Rain = 0
KST2 191303Z 15005KT 05/03 A2997 RMK A01 T00450026  RH  088%=      5-min Rain = 0
KST2 191304Z 15004KT 05/03 A2997 RMK A01 T00450027  RH  088%=      5-min Rain = 0
KST2 191305Z 15004KT 05/03 A2997 RMK A01 T00460028  RH  088%=      5-min Rain = 0
KST2 191306Z 15004KT 05/03 A2997 RMK A01 T00470027  RH  087%=      5-min Rain = 0
KST2 191307Z 15004KT 05/03 A2997 RMK A01 T00470027  RH  087%=      5-min Rain = 0
KST2 191308Z 15004KT 05/03 A2997 RMK A01 T00460027  RH  087%=      5-min Rain = 0
KST2 191309Z 15004KT 05/03 A2997 RMK A01 T00470027  RH  087%=      5-min Rain = 0
KST2 191310Z 15004KT 05/03 A2997 RMK A01 T00470027  RH  087%=      5-min Rain = 0
KST2 191311Z 15004KT 05/03 A2997 RMK A01 T00460027  RH  087%=      5-min Rain = 0
KST2 191312Z 15004KT 05/03 A2997 RMK A01 T00470027  RH  087%=      5-min Rain = 0
KST2 191313Z 15004KT 05/03 A2998 RMK A01 T00460027  RH  087%=      5-min Rain = 0
KST2 191314Z 15004KT 05/03 A2998 RMK A01 T00470027  RH  087%=      5-min Rain = 0
KST2 191315Z 15004KT 05/03 A2998 RMK A01 T00470027  RH  087%=      5-min Rain = 0
KST2 191316Z 15004KT 05/03 A2998 RMK A01 T00470027  RH  087%=      5-min Rain = 0
KST2 191317Z 15004KT 05/03 A2998 RMK A01 T00470027  RH  087%=      5-min Rain = 0
KST2 191318Z 16005KT 05/03 A2998 RMK A01 T00470027  RH  087%=      5-min Rain = 0
KST2 191319Z 16005KT 05/03 A2998 RMK A01 T00470027  RH  087%=      5-min Rain = 0
KST2 191320Z 16005KT 05/03 A2998 RMK A01 T00480027  RH  087%=      5-min Rain = 0
KST2 191321Z 16005KT 05/03 A2998 RMK A01 T00480027  RH  086%=      5-min Rain = 0
KST2 191322Z 16005KT 05/03 A2998 RMK A01 T00480027  RH  086%=      5-min Rain = 0
KST2 191323Z 16005KT 05/03 A2998 RMK A01 T00480027  RH  086%=      5-min Rain = 0
KST2 191324Z 16005KT 05/03 A2998 RMK A01 T00480028  RH  086%=      5-min Rain = 0
KST2 191325Z 16005KT 05/03 A2998 RMK A01 T00480027  RH  086%=      5-min Rain = 0
KST2 191326Z 16005KT 05/03 A2998 RMK A01 T00490028  RH  086%=      5-min Rain = 0
KST2 191327Z 15005KT 05/03 A2998 RMK A01 T00480027  RH  086%=      5-min Rain = 0
KST2 191328Z 15005KT 05/03 A2998 RMK A01 T00480027  RH  086%=      5-min Rain = 0
KST2 191329Z 15004KT 05/03 A2998 RMK A01 T00480027  RH  086%=      5-min Rain = 0
KST2 191330Z 15004KT 05/03 A2998 RMK A01 T00480027  RH  086%=      5-min Rain = 0
KST2 191331Z 15004KT 05/03 A2998 RMK A01 T00490027  RH  086%=      5-min Rain = 0
KST2 191332Z 15004KT 05/03 A2999 RMK A01 T00490027  RH  086%=      5-min Rain = 0
KST2 191333Z 16004KT 05/03 A2999 RMK A01 T00490027  RH  086%=      5-min Rain = 0
KST2 191334Z 16004KT 05/03 A2999 RMK A01 T00490028  RH  086%=      5-min Rain = 0
KST2 191335Z 16004KT 05/03 A2999 RMK A01 T00490029  RH  086%=      5-min Rain = 0
KST2 191336Z 16004KT 05/03 A2999 RMK A01 T00500029  RH  087%=      5-min Rain = 0
KST2 191337Z 17004KT 05/03 A2999 RMK A01 T00500030  RH  087%=      5-min Rain = 0
KST2 191338Z 17004KT 05/03 A2999 RMK A01 T00510030  RH  087%=      5-min Rain = 0
KST2 191339Z 17004KT 05/03 A2999 RMK A01 T00510031  RH  087%=      5-min Rain = 0
KST2 191340Z 17004KT 05/03 A2999 RMK A01 T00510032  RH  087%=      5-min Rain = 0
KST2 191341Z 17003KT 05/03 A2999 RMK A01 T00520032  RH  087%=      5-min Rain = 0
KST2 191342Z 17003KT 05/03 A2999 RMK A01 T00530034  RH  088%=      5-min Rain = 0
KST2 191343Z 17004KT 05/03 A2999 RMK A01 T00530034  RH  088%=      5-min Rain = 0
KST2 191344Z 17003KT 05/04 A2999 RMK A01 T00540035  RH  087%=      5-min Rain = 0
KST2 191345Z 17003KT 06/04 A2999 RMK A01 T00550035  RH  087%=      5-min Rain = 0
KST2 191346Z 17003KT 06/04 A2999 RMK A01 T00560036  RH  087%=      5-min Rain = 0
KST2 191347Z 17003KT 06/04 A2999 RMK A01 T00560036  RH  087%=      5-min Rain = 0
KST2 191348Z 17004KT 06/04 A2999 RMK A01 T00570037  RH  087%=      5-min Rain = 0
KST2 191349Z 17003KT 06/04 A2999 RMK A01 T00580037  RH  087%=      5-min Rain = 0
KST2 191350Z 17003KT 06/04 A2999 RMK A01 T00590038  RH  086%=      5-min Rain = 0
KST2 191351Z 17003KT 06/04 A2999 RMK A01 T00600039  RH  086%=      5-min Rain = 0
KST2 191352Z 17003KT 06/04 A2999 RMK A01 T00610039  RH  086%=      5-min Rain = 0
KST2 191353Z 17003KT 06/04 A2999 RMK A01 T00620040  RH  086%=      5-min Rain = 0
KST2 191354Z 18004KT 06/04 A2999 RMK A01 T00630040  RH  086%=      5-min Rain = 0
KST2 191355Z 18004KT 06/04 A2999 RMK A01 T00630041  RH  085%=      5-min Rain = 0
KST2 191356Z 18004KT 06/04 A2999 RMK A01 T00640041  RH  085%=      5-min Rain = 0
KST2 191357Z 18003KT 07/04 A2999 RMK A01 T00650042  RH  085%=      5-min Rain = 0
KST2 191358Z 18003KT 07/04 A2999 RMK A01 T00650042  RH  085%=      5-min Rain = 0
KST2 191359Z 18003KT 07/04 A2999 RMK A01 T00660043  RH  085%=      5-min Rain = 0
KST2 191400Z 19003KT 07/04 A2999 RMK A01 T00670042  RH  085%=      5-min Rain = 0
KST2 191401Z 19003KT 07/04 A2999 RMK A01 T00670042  RH  084%=      5-min Rain = 0
KST2 191402Z 19003KT 07/04 A2999 RMK A01 T00680043  RH  084%=      5-min Rain = 0
KST2 191403Z 19004KT 07/04 A2999 RMK A01 T00680043  RH  084%=      5-min Rain = 0
KST2 191404Z 19004KT 07/04 A2999 RMK A01 T00690043  RH  084%=      5-min Rain = 0
KST2 191405Z 19004KT 07/04 A2999 RMK A01 T00700044  RH  083%=      5-min Rain = 0
KST2 191406Z 19004KT 07/04 A2999 RMK A01 T00700043  RH  083%=      5-min Rain = 0
KST2 191407Z 19004KT 07/04 A2999 RMK A01 T00710043  RH  083%=      5-min Rain = 0
KST2 191408Z 20004KT 07/04 A2999 RMK A01 T00710043  RH  083%=      5-min Rain = 0
KST2 191409Z 20004KT 07/04 A2999 RMK A01 T00710044  RH  083%=      5-min Rain = 0
KST2 191410Z 20004KT 07/04 A2999 RMK A01 T00720044  RH  083%=      5-min Rain = 0
KST2 191411Z 20005KT 07/04 A2999 RMK A01 T00720044  RH  083%=      5-min Rain = 0
KST2 191412Z 20005KT 07/05 A2999 RMK A01 T00720045  RH  083%=      5-min Rain = 0
KST2 191413Z 20004KT 07/05 A2999 RMK A01 T00720045  RH  083%=      5-min Rain = 0
KST2 191414Z 20004KT 07/05 A2999 RMK A01 T00730045  RH  083%=      5-min Rain = 0
KST2 191415Z 20004KT 07/05 A2999 RMK A01 T00740046  RH  083%=      5-min Rain = 0
KST2 191416Z 20004KT 07/05 A2999 RMK A01 T00740047  RH  083%=      5-min Rain = 0
KST2 191417Z 20004KT 08/05 A2999 RMK A01 T00750048  RH  083%=      5-min Rain = 0
KST2 191418Z 20004KT 08/05 A2999 RMK A01 T00760049  RH  083%=      5-min Rain = 0
KST2 191419Z 20004KT 08/05 A2999 RMK A01 T00770049  RH  083%=      5-min Rain = 0
KST2 191420Z 20004KT 08/05 A2999 RMK A01 T00770049  RH  083%=      5-min Rain = 0
KST2 191421Z 20003KT 08/05 A2999 RMK A01 T00780051  RH  083%=      5-min Rain = 0
KST2 191422Z 20003KT 08/05 A2999 RMK A01 T00790051  RH  083%=      5-min Rain = 0
KST2 191423Z 20003KT 08/05 A2999 RMK A01 T00800051  RH  082%=      5-min Rain = 0
KST2 191424Z 20003KT 08/05 A2999 RMK A01 T00800052  RH  082%=      5-min Rain = 0
KST2 191425Z 20004KT 08/05 A2999 RMK A01 T00820052  RH  082%=      5-min Rain = 0
KST2 191426Z 20003KT 08/05 A2999 RMK A01 T00820053  RH  082%=      5-min Rain = 0
KST2 191427Z 20003KT 08/05 A2999 RMK A01 T00830054  RH  082%=      5-min Rain = 0
KST2 191428Z 20004KT 08/06 A2999 RMK A01 T00840055  RH  082%=      5-min Rain = 0
KST2 191429Z 21004KT 09/06 A2999 RMK A01 T00850055  RH  081%=      5-min Rain = 0
KST2 191430Z 21004KT 09/06 A2999 RMK A01 T00860055  RH  081%=      5-min Rain = 0
KST2 191431Z 21004KT 09/06 A2999 RMK A01 T00860055  RH  081%=      5-min Rain = 0
KST2 191432Z 21003KT 09/06 A2999 RMK A01 T00870057  RH  081%=      5-min Rain = 0
KST2 191433Z 21003KT 09/06 A2999 RMK A01 T00880057  RH  081%=      5-min Rain = 0
KST2 191434Z 21003KT 09/06 A2999 RMK A01 T00880057  RH  081%=      5-min Rain = 0
KST2 191435Z 22003KT 09/06 A2999 RMK A01 T00880057  RH  081%=      5-min Rain = 0
KST2 191436Z 22003KT 09/06 A2999 RMK A01 T00890057  RH  081%=      5-min Rain = 0
KST2 191437Z 21004KT 09/06 A2999 RMK A01 T00890057  RH  080%=      5-min Rain = 0
KST2 191438Z 21004KT 09/06 A2999 RMK A01 T00900057  RH  080%=      5-min Rain = 0
KST2 191439Z 21004KT 09/06 A2999 RMK A01 T00900056  RH  079%=      5-min Rain = 0
KST2 191440Z 21004KT 09/06 A2999 RMK A01 T00900055  RH  079%=      5-min Rain = 0
KST2 191441Z 21004KT 09/06 A2999 RMK A01 T00910057  RH  079%=      5-min Rain = 0
KST2 191442Z 21004KT 09/06 A2999 RMK A01 T00920057  RH  079%=      5-min Rain = 0
KST2 191443Z 21004KT 09/06 A2999 RMK A01 T00930059  RH  079%=      5-min Rain = 0
KST2 191444Z 21004KT 09/06 A2999 RMK A01 T00940059  RH  079%=      5-min Rain = 0
KST2 191445Z 21004KT 10/06 A2999 RMK A01 T00950059  RH  078%=      5-min Rain = 0
KST2 191446Z 21004KT 10/06 A2999 RMK A01 T00960060  RH  078%=      5-min Rain = 0
KST2 191447Z 21003KT 10/06 A2999 RMK A01 T00970061  RH  078%=      5-min Rain = 0
KST2 191448Z 21003KT 10/06 A2999 RMK A01 T00980063  RH  079%=      5-min Rain = 0
KST2 191449Z 21003KT 10/06 A2999 RMK A01 T00990063  RH  078%=      5-min Rain = 0
KST2 191450Z 21003KT 10/06 A2999 RMK A01 T01000062  RH  077%=      5-min Rain = 0
KST2 191451Z 21003KT 10/06 A2999 RMK A01 T01010062  RH  077%=      5-min Rain = 0
KST2 191452Z 21003KT 10/06 A2999 RMK A01 T01020063  RH  077%=      5-min Rain = 0
KST2 191453Z 21003KT 10/06 A2999 RMK A01 T01030064  RH  077%=      5-min Rain = 0
KST2 191454Z 20003KT 10/06 A2999 RMK A01 T01040064  RH  076%=      5-min Rain = 0
KST2 191455Z 20003KT 11/06 A2999 RMK A01 T01050064  RH  076%=      5-min Rain = 0
KST2 191456Z 20003KT 11/06 A2999 RMK A01 T01050064  RH  076%=      5-min Rain = 0
KST2 191457Z 20003KT 11/07 A2999 RMK A01 T01070066  RH  076%=      5-min Rain = 0
KST2 191458Z 20003KT 11/07 A2999 RMK A01 T01080065  RH  075%=      5-min Rain = 0
KST2 191459Z 20003KT 11/07 A2999 RMK A01 T01090065  RH  074%=      5-min Rain = 0
KST2 191500Z 20003KT 11/07 A2999 RMK A01 T01100065  RH  074%=      5-min Rain = 0
KST2 191501Z 20003KT 11/07 A2999 RMK A01 T01110065  RH  073%=      5-min Rain = 0
KST2 191502Z 20003KT 11/07 A2999 RMK A01 T01120066  RH  073%=      5-min Rain = 0
KST2 191503Z 21003KT 11/07 A2999 RMK A01 T01140067  RH  073%=      5-min Rain = 0
KST2 191504Z 21003KT 11/07 A2999 RMK A01 T01140066  RH  072%=      5-min Rain = 0
KST2 191505Z 20003KT 12/07 A2999 RMK A01 T01150067  RH  072%=      5-min Rain = 0
KST2 191506Z 20003KT 12/07 A2999 RMK A01 T01160068  RH  072%=      5-min Rain = 0
KST2 191507Z 20003KT 12/07 A2999 RMK A01 T01180068  RH  072%=      5-min Rain = 0
KST2 191508Z 20003KT 12/07 A2999 RMK A01 T01190069  RH  072%=      5-min Rain = 0
KST2 191509Z 18003KT 12/07 A2999 RMK A01 T01200069  RH  071%=      5-min Rain = 0
KST2 191510Z 18003KT 12/07 A2999 RMK A01 T01200067  RH  070%=      5-min Rain = 0
KST2 191511Z 18003KT 12/07 A2999 RMK A01 T01210065  RH  069%=      5-min Rain = 0
KST2 191512Z 19003KT 12/07 A2999 RMK A01 T01220066  RH  069%=      5-min Rain = 0
KST2 191513Z 19002KT 12/07 A2999 RMK A01 T01220066  RH  069%=      5-min Rain = 0
KST2 191514Z 20003KT 12/07 A2999 RMK A01 T01230066  RH  068%=      5-min Rain = 0
KST2 191515Z 19003KT 12/07 A2999 RMK A01 T01240065  RH  067%=      5-min Rain = 0
KST2 191516Z 19002KT 13/07 A2999 RMK A01 T01250067  RH  068%=      5-min Rain = 0
KST2 191517Z 19002KT 13/07 A2999 RMK A01 T01260066  RH  067%=      5-min Rain = 0
KST2 191518Z 19002KT 13/07 A2999 RMK A01 T01270068  RH  067%=      5-min Rain = 0
KST2 191519Z 20002KT 13/07 A2999 RMK A01 T01280068  RH  067%=      5-min Rain = 0
KST2 191520Z 20002KT 13/07 A2999 RMK A01 T01290068  RH  067%=      5-min Rain = 0
KST2 191521Z 20002KT 13/07 A2999 RMK A01 T01290068  RH  066%=      5-min Rain = 0
KST2 191522Z 19002KT 13/07 A2999 RMK A01 T01300068  RH  066%=      5-min Rain = 0
KST2 191523Z 19002KT 13/07 A2999 RMK A01 T01310068  RH  065%=      5-min Rain = 0
KST2 191524Z 18002KT 13/07 A2999 RMK A01 T01310069  RH  066%=      5-min Rain = 0
KST2 191525Z 18001KT 13/07 A2999 RMK A01 T01330068  RH  065%=      5-min Rain = 0
KST2 191526Z 18002KT 13/07 A2999 RMK A01 T01340070  RH  065%=      5-min Rain = 0
KST2 191527Z 18002KT 14/07 A2999 RMK A01 T01350071  RH  065%=      5-min Rain = 0
KST2 191528Z 19002KT 14/07 A2999 RMK A01 T01360069  RH  064%=      5-min Rain = 0
KST2 191529Z 18002KT 14/07 A2999 RMK A01 T01360068  RH  063%=      5-min Rain = 0
KST2 191530Z 18002KT 14/07 A2999 RMK A01 T01360068  RH  063%=      5-min Rain = 0
KST2 191531Z 18002KT 14/07 A2999 RMK A01 T01370069  RH  063%=      5-min Rain = 0
KST2 191532Z 18001KT 14/07 A2999 RMK A01 T01380070  RH  064%=      5-min Rain = 0
KST2 191533Z 19001KT 14/07 A2999 RMK A01 T01390071  RH  064%=      5-min Rain = 0
KST2 191534Z 20002KT 14/07 A2999 RMK A01 T01410071  RH  063%=      5-min Rain = 0
KST2 191535Z 20001KT 14/07 A2999 RMK A01 T01410069  RH  062%=      5-min Rain = 0
KST2 191536Z 20001KT 14/07 A2999 RMK A01 T01420070  RH  062%=      5-min Rain = 0
KST2 191537Z 20002KT 14/07 A2999 RMK A01 T01420070  RH  062%=      5-min Rain = 0
KST2 191538Z 19002KT 14/07 A2999 RMK A01 T01430070  RH  062%=      5-min Rain = 0
KST2 191539Z 19002KT 14/07 A2999 RMK A01 T01440070  RH  061%=      5-min Rain = 0
KST2 191540Z 19002KT 14/07 A2999 RMK A01 T01440070  RH  061%=      5-min Rain = 0
KST2 191541Z 19002KT 15/07 A2999 RMK A01 T01450069  RH  060%=      5-min Rain = 0
KST2 191542Z 18002KT 15/07 A2999 RMK A01 T01460069  RH  060%=      5-min Rain = 0
KST2 191543Z 18002KT 15/07 A2999 RMK A01 T01460068  RH  059%=      5-min Rain = 0
KST2 191544Z 18001KT 15/07 A2999 RMK A01 T01460067  RH  059%=      5-min Rain = 0
KST2 191545Z 18002KT 15/07 A2999 RMK A01 T01470069  RH  059%=      5-min Rain = 0
KST2 191546Z 18002KT 15/07 A2999 RMK A01 T01480067  RH  058%=      5-min Rain = 0
KST2 191547Z 18001KT 15/07 A2999 RMK A01 T01480067  RH  058%=      5-min Rain = 0
KST2 191548Z 18001KT 15/07 A2999 RMK A01 T01490067  RH  058%=      5-min Rain = 0
KST2 191549Z 18001KT 15/07 A2999 RMK A01 T01500067  RH  058%=      5-min Rain = 0
KST2 191550Z 17001KT 15/07 A2999 RMK A01 T01510070  RH  058%=      5-min Rain = 0
KST2 191551Z 17001KT 15/07 A2999 RMK A01 T01520069  RH  058%=      5-min Rain = 0
KST2 191552Z 18001KT 15/07 A2999 RMK A01 T01530069  RH  057%=      5-min Rain = 0
KST2 191553Z 19002KT 15/07 A2999 RMK A01 T01540065  RH  056%=      5-min Rain = 0
KST2 191554Z 19001KT 15/07 A2999 RMK A01 T01540065  RH  055%=      5-min Rain = 0
KST2 191555Z 19001KT 15/07 A2999 RMK A01 T01540065  RH  055%=      5-min Rain = 0
KST2 191556Z 19001KT 15/07 A2999 RMK A01 T01540065  RH  055%=      5-min Rain = 0
KST2 191557Z 17001KT 16/07 A2999 RMK A01 T01560066  RH  055%=      5-min Rain = 0
KST2 191558Z 17001KT 16/07 A2999 RMK A01 T01560065  RH  055%=      5-min Rain = 0
KST2 191559Z 17001KT 16/07 A2999 RMK A01 T01570065  RH  054%=      5-min Rain = 0
KST2 191600Z 17002KT 16/07 A2999 RMK A01 T01570066  RH  055%=      5-min Rain = 0
KST2 191601Z 17001KT 16/07 A2999 RMK A01 T01580067  RH  055%=      5-min Rain = 0
KST2 191602Z 17001KT 16/07 A2999 RMK A01 T01590067  RH  054%=      5-min Rain = 0
KST2 191603Z 17001KT 16/07 A2999 RMK A01 T01600068  RH  054%=      5-min Rain = 0
KST2 191604Z 17002KT 16/07 A2999 RMK A01 T01610067  RH  054%=      5-min Rain = 0
KST2 191605Z 17002KT 16/07 A2999 RMK A01 T01610066  RH  053%=      5-min Rain = 0
KST2 191606Z 17002KT 16/06 A2999 RMK A01 T01610064  RH  053%=      5-min Rain = 0
KST2 191607Z 18002KT 16/06 A2999 RMK A01 T01600064  RH  053%=      5-min Rain = 0
KST2 191608Z 17002KT 16/07 A2999 RMK A01 T01610066  RH  053%=      5-min Rain = 0
KST2 191609Z 19002KT 16/06 A2999 RMK A01 T01610064  RH  052%=      5-min Rain = 0
KST2 191610Z 18002KT 16/06 A2999 RMK A01 T01610064  RH  053%=      5-min Rain = 0
KST2 191611Z 19002KT 16/06 A2999 RMK A01 T01610063  RH  052%=      5-min Rain = 0
KST2 191612Z 19002KT 16/06 A2999 RMK A01 T01610064  RH  052%=      5-min Rain = 0
KST2 191613Z 18002KT 16/06 A2999 RMK A01 T01610064  RH  052%=      5-min Rain = 0
KST2 191614Z 18003KT 16/06 A2999 RMK A01 T01620064  RH  052%=      5-min Rain = 0
KST2 191615Z 18003KT 16/07 A2999 RMK A01 T01630065  RH  052%=      5-min Rain = 0
KST2 191616Z 18002KT 16/06 A2999 RMK A01 T01640064  RH  052%=      5-min Rain = 0
KST2 191617Z 18002KT 17/07 A2999 RMK A01 T01650065  RH  052%=      5-min Rain = 0
KST2 191618Z 18002KT 17/07 A2999 RMK A01 T01650066  RH  052%=      5-min Rain = 0
KST2 191619Z 19002KT 17/06 A2999 RMK A01 T01660064  RH  051%=      5-min Rain = 0
KST2 191620Z 18003KT 17/06 A2999 RMK A01 T01660063  RH  051%=      5-min Rain = 0
KST2 191621Z 18003KT 17/06 A2999 RMK A01 T01660062  RH  050%=      5-min Rain = 0
KST2 191622Z 18002KT 17/06 A2999 RMK A01 T01660062  RH  050%=      5-min Rain = 0
KST2 191623Z 18002KT 17/06 A2999 RMK A01 T01670063  RH  050%=      5-min Rain = 0
KST2 191624Z 18002KT 17/06 A2999 RMK A01 T01680063  RH  050%=      5-min Rain = 0
KST2 191625Z 18002KT 17/07 A2998 RMK A01 T01690065  RH  050%=      5-min Rain = 0
KST2 191626Z 18003KT 17/07 A2998 RMK A01 T01700067  RH  051%=      5-min Rain = 0
KST2 191627Z 17003KT 17/07 A2998 RMK A01 T01710067  RH  050%=      5-min Rain = 0
KST2 191628Z 18003KT 17/07 A2998 RMK A01 T01710067  RH  050%=      5-min Rain = 0
KST2 191629Z 18003KT 17/07 A2998 RMK A01 T01720067  RH  050%=      5-min Rain = 0
KST2 191630Z 18003KT 17/07 A2998 RMK A01 T01720067  RH  050%=      5-min Rain = 0
KST2 191631Z 17003KT 17/07 A2998 RMK A01 T01730067  RH  050%=      5-min Rain = 0
KST2 191632Z 16002KT 17/07 A2998 RMK A01 T01730066  RH  049%=      5-min Rain = 0
KST2 191633Z 15002KT 17/07 A2998 RMK A01 T01740066  RH  049%=      5-min Rain = 0
KST2 191634Z 15002KT 18/07 A2998 RMK A01 T01750069  RH  050%=      5-min Rain = 0
KST2 191635Z 16004KT 18/07 A2998 RMK A01 T01760071  RH  050%=      5-min Rain = 0
KST2 191636Z 17004KT 18/07 A2998 RMK A01 T01780074  RH  051%=      5-min Rain = 0
KST2 191637Z 17004KT 18/07 A2998 RMK A01 T01780070  RH  049%=      5-min Rain = 0
KST2 191638Z 17004KT 18/07 A2998 RMK A01 T01780067  RH  048%=      5-min Rain = 0
KST2 191639Z 18004KT 18/07 A2998 RMK A01 T01780067  RH  048%=      5-min Rain = 0
KST2 191640Z 17005KT 18/07 A2998 RMK A01 T01780066  RH  048%=      5-min Rain = 0
KST2 191641Z 17004KT 18/07 A2998 RMK A01 T01780067  RH  048%=      5-min Rain = 0
KST2 191642Z 16005KT 18/07 A2998 RMK A01 T01780066  RH  048%=      5-min Rain = 0
KST2 191643Z 15005KT 18/07 A2998 RMK A01 T01790067  RH  048%=      5-min Rain = 0
KST2 191644Z 16004KT 18/07 A2998 RMK A01 T01790065  RH  047%=      5-min Rain = 0
KST2 191645Z 16004KT 18/07 A2998 RMK A01 T01800066  RH  047%=      5-min Rain = 0
KST2 191646Z 16004KT 18/07 A2998 RMK A01 T01800065  RH  047%=      5-min Rain = 0
KST2 191647Z 16004KT 18/07 A2997 RMK A01 T01810069  RH  048%=      5-min Rain = 0
KST2 191648Z 15005KT 18/07 A2997 RMK A01 T01820067  RH  047%=      5-min Rain = 0
KST2 191649Z 16004KT 18/07 A2997 RMK A01 T01830069  RH  047%=      5-min Rain = 0
KST2 191650Z 17005KT 18/07 A2997 RMK A01 T01840070  RH  047%=      5-min Rain = 0
KST2 191651Z 17005KT 18/07 A2997 RMK A01 T01840068  RH  046%=      5-min Rain = 0
KST2 191652Z 18005KT 18/07 A2997 RMK A01 T01840068  RH  047%=      5-min Rain = 0
KST2 191653Z 17005KT 19/07 A2997 RMK A01 T01850067  RH  046%=      5-min Rain = 0
KST2 191654Z 18006KT 19/07 A2997 RMK A01 T01850070  RH  047%=      5-min Rain = 0
KST2 191655Z 17005KT 19/07 A2997 RMK A01 T01860066  RH  046%=      5-min Rain = 0
KST2 191656Z 17005KT 19/07 A2997 RMK A01 T01860067  RH  046%=      5-min Rain = 0
KST2 191657Z 17005KT 19/07 A2997 RMK A01 T01860067  RH  046%=      5-min Rain = 0
KST2 191658Z 16004KT 19/07 A2997 RMK A01 T01860068  RH  046%=      5-min Rain = 0
KST2 191659Z 16004KT 19/07 A2997 RMK A01 T01880069  RH  046%=      5-min Rain = 0
KST2 191700Z 18005KT 19/07 A2997 RMK A01 T01880067  RH  045%=      5-min Rain = 0
KST2 191701Z 18004KT 19/07 A2997 RMK A01 T01890066  RH  045%=      5-min Rain = 0
KST2 191702Z 17005KT 19/07 A2997 RMK A01 T01890069  RH  045%=      5-min Rain = 0
KST2 191703Z 17004KT 19/07 A2997 RMK A01 T01900067  RH  045%=      5-min Rain = 0
KST2 191704Z 18005KT 19/07 A2997 RMK A01 T01910069  RH  045%=      5-min Rain = 0
KST2 191705Z 17005KT 19/07 A2997 RMK A01 T01920070  RH  045%=      5-min Rain = 0
KST2 191706Z 17004KT 19/07 A2997 RMK A01 T01920067  RH  044%=      5-min Rain = 0
KST2 191707Z 18004KT 19/07 A2997 RMK A01 T01920069  RH  045%=      5-min Rain = 0
KST2 191708Z 18003KT 19/07 A2997 RMK A01 T01920068  RH  045%=      5-min Rain = 0
KST2 191709Z 17005KT 19/07 A2997 RMK A01 T01930073  RH  046%=      5-min Rain = 0
KST2 191710Z 16005KT 19/07 A2997 RMK A01 T01940072  RH  045%=      5-min Rain = 0
KST2 191711Z 17005KT 20/07 A2997 RMK A01 T01950071  RH  045%=      5-min Rain = 0
KST2 191712Z 16004KT 20/07 A2997 RMK A01 T01950070  RH  044%=      5-min Rain = 0
KST2 191713Z 19004KT 20/07 A2996 RMK A01 T01950070  RH  044%=      5-min Rain = 0
KST2 191714Z 17005KT 20/07 A2996 RMK A01 T01950068  RH  044%=      5-min Rain = 0
KST2 191715Z 15004KT 20/07 A2996 RMK A01 T01950070  RH  044%=      5-min Rain = 0
KST2 191716Z 16003KT 20/07 A2996 RMK A01 T01960070  RH  044%=      5-min Rain = 0
KST2 191717Z 19004KT 20/07 A2996 RMK A01 T01970074  RH  045%=      5-min Rain = 0
KST2 191718Z 20006KT 20/07 A2996 RMK A01 T01980072  RH  044%=      5-min Rain = 0
KST2 191719Z 20005KT 20/07 A2996 RMK A01 T01990071  RH  043%=      5-min Rain = 0
KST2 191720Z 20004KT 20/07 A2996 RMK A01 T02000070  RH  043%=      5-min Rain = 0
KST2 191721Z 19004KT 20/07 A2996 RMK A01 T02000071  RH  043%=      5-min Rain = 0
KST2 191722Z 19005KT 20/07 A2996 RMK A01 T02010073  RH  043%=      5-min Rain = 0
KST2 191723Z 18004KT 20/08 A2996 RMK A01 T02020075  RH  044%=      5-min Rain = 0
KST2 191724Z 18006KT 20/08 A2996 RMK A01 T02030076  RH  044%=      5-min Rain = 0
KST2 191725Z 18007KT 21/08 A2996 RMK A01 T02050078  RH  044%=      5-min Rain = 0
KST2 191726Z 18005KT 21/07 A2996 RMK A01 T02050073  RH  042%=      5-min Rain = 0
KST2 191727Z 18004KT 20/07 A2996 RMK A01 T02040073  RH  043%=      5-min Rain = 0
KST2 191728Z 19006KT 20/08 A2996 RMK A01 T02040075  RH  043%=      5-min Rain = 0
KST2 191729Z 20005KT 20/07 A2996 RMK A01 T02040074  RH  043%=      5-min Rain = 0
KST2 191730Z 19005KT 20/08 A2996 RMK A01 T02040075  RH  043%=      5-min Rain = 0
KST2 191731Z 18007KT 21/08 A2996 RMK A01 T02050075  RH  043%=      5-min Rain = 0
KST2 191732Z 18007KT 21/07 A2996 RMK A01 T02050074  RH  043%=      5-min Rain = 0
KST2 191733Z 19005KT 21/08 A2996 RMK A01 T02050076  RH  043%=      5-min Rain = 0
KST2 191734Z 20005KT 21/08 A2996 RMK A01 T02050075  RH  043%=      5-min Rain = 0
KST2 191735Z 19005KT 21/08 A2996 RMK A01 T02050076  RH  043%=      5-min Rain = 0
KST2 191736Z 17005KT 21/07 A2996 RMK A01 T02060074  RH  042%=      5-min Rain = 0
KST2 191737Z 17006KT 21/08 A2996 RMK A01 T02060079  RH  044%=      5-min Rain = 0
KST2 191738Z 19004KT 21/08 A2996 RMK A01 T02070079  RH  044%=      5-min Rain = 0
KST2 191739Z 20005KT 21/08 A2996 RMK A01 T02080079  RH  043%=      5-min Rain = 0
KST2 191740Z 18004KT 21/08 A2996 RMK A01 T02080077  RH  043%=      5-min Rain = 0
KST2 191741Z 18004KT 21/08 A2996 RMK A01 T02090077  RH  042%=      5-min Rain = 0
KST2 191742Z 19005KT 21/08 A2995 RMK A01 T02090078  RH  043%=      5-min Rain = 0
KST2 191743Z 18004KT 21/08 A2995 RMK A01 T02090076  RH  042%=      5-min Rain = 0
KST2 191744Z 17007KT 21/08 A2995 RMK A01 T02100080  RH  043%=      5-min Rain = 0
KST2 191745Z 18007KT 21/08 A2995 RMK A01 T02110081  RH  043%=      5-min Rain = 0
KST2 191746Z 17005KT 21/08 A2995 RMK A01 T02110079  RH  043%=      5-min Rain = 0
KST2 191747Z 19005KT 21/08 A2995 RMK A01 T02120079  RH  042%=      5-min Rain = 0
KST2 191748Z 19005KT 21/08 A2995 RMK A01 T02120078  RH  042%=      5-min Rain = 0
KST2 191749Z 20005KT 21/08 A2995 RMK A01 T02130079  RH  042%=      5-min Rain = 0
KST2 191750Z 20005KT 21/08 A2995 RMK A01 T02140078  RH  042%=      5-min Rain = 0
KST2 191751Z 20004KT 21/08 A2995 RMK A01 T02140078  RH  041%=      5-min Rain = 0
KST2 191752Z 21004KT 22/08 A2995 RMK A01 T02150078  RH  041%=      5-min Rain = 0
KST2 191753Z 18004KT 22/08 A2995 RMK A01 T02160080  RH  042%=      5-min Rain = 0
KST2 191754Z 18005KT 22/08 A2995 RMK A01 T02170081  RH  042%=      5-min Rain = 0
KST2 191755Z 17006KT 22/08 A2995 RMK A01 T02180081  RH  041%=      5-min Rain = 0
KST2 191756Z 18007KT 22/08 A2995 RMK A01 T02180082  RH  042%=      5-min Rain = 0
KST2 191757Z 19006KT 22/08 A2995 RMK A01 T02200081  RH  041%=      5-min Rain = 0
KST2 191758Z 20006KT 22/08 A2994 RMK A01 T02210081  RH  040%=      5-min Rain = 0
KST2 191759Z 18006KT 22/08 A2994 RMK A01 T02230080  RH  040%=      5-min Rain = 0
KST2 191800Z 21007KT 22/08 A2994 RMK A01 T02240079  RH  039%=      5-min Rain = 0
KST2 191801Z 20005KT 22/08 A2994 RMK A01 T02240079  RH  039%=      5-min Rain = 0
KST2 191802Z 20006KT 22/08 A2994 RMK A01 T02240077  RH  039%=      5-min Rain = 0
KST2 191803Z 20007KT 23/08 A2994 RMK A01 T02250079  RH  039%=      5-min Rain = 0
KST2 191804Z 21007KT 23/08 A2994 RMK A01 T02260079  RH  039%=      5-min Rain = 0
KST2 191805Z 20007KT 23/08 A2994 RMK A01 T02270080  RH  039%=      5-min Rain = 0
KST2 191806Z 19006KT 23/08 A2994 RMK A01 T02290079  RH  038%=      5-min Rain = 0
KST2 191807Z 19006KT 23/08 A2994 RMK A01 T02290079  RH  038%=      5-min Rain = 0
KST2 191808Z 18005KT 23/08 A2994 RMK A01 T02280078  RH  038%=      5-min Rain = 0
KST2 191809Z 19004KT 23/08 A2994 RMK A01 T02280080  RH  039%=      5-min Rain = 0
KST2 191810Z 19005KT 23/08 A2994 RMK A01 T02280081  RH  039%=      5-min Rain = 0
KST2 191811Z 19005KT 23/08 A2994 RMK A01 T02300084  RH  039%=      5-min Rain = 0
KST2 191812Z 20005KT 23/08 A2994 RMK A01 T02330083  RH  038%=      5-min Rain = 0
KST2 191813Z 21009KT 24/08 A2994 RMK A01 T02360082  RH  037%=      5-min Rain = 0
KST2 191814Z 22009KT 24/08 A2994 RMK A01 T02370081  RH  037%=      5-min Rain = 0
KST2 191815Z 21009KT 24/08 A2994 RMK A01 T02370081  RH  037%=      5-min Rain = 0
KST2 191816Z 19010KT 24/08 A2993 RMK A01 T02380077  RH  036%=      5-min Rain = 0
KST2 191817Z 19007KT 24/08 A2993 RMK A01 T02370076  RH  036%=      5-min Rain = 0
KST2 191818Z 22008KT 24/08 A2993 RMK A01 T02350076  RH  036%=      5-min Rain = 0
KST2 191819Z 23007KT 24/08 A2993 RMK A01 T02350079  RH  037%=      5-min Rain = 0
KST2 191820Z 22006G12KT 24/08 A2993 RMK A01 T02360083  RH  038%=      5-min Rain = 0
KST2 191821Z 20013KT 24/08 A2993 RMK A01 T02380078  RH  036%=      5-min Rain = 0
KST2 191822Z 20011KT 24/08 A2993 RMK A01 T02390075  RH  035%=      5-min Rain = 0
KST2 191823Z 21012KT 24/08 A2993 RMK A01 T02390075  RH  035%=      5-min Rain = 0
KST2 191824Z 21010KT 24/08 A2993 RMK A01 T02380076  RH  035%=      5-min Rain = 0
KST2 191825Z 21009KT 24/08 A2993 RMK A01 T02380076  RH  035%=      5-min Rain = 0
KST2 191826Z 21008KT 24/08 A2993 RMK A01 T02390076  RH  035%=      5-min Rain = 0
KST2 191827Z 22010KT 24/08 A2993 RMK A01 T02390075  RH  035%=      5-min Rain = 0
KST2 191828Z 22010KT 24/07 A2993 RMK A01 T02390074  RH  035%=      5-min Rain = 0
KST2 191829Z 21010KT 24/08 A2993 RMK A01 T02390076  RH  035%=      5-min Rain = 0
KST2 191830Z 20010KT 24/07 A2993 RMK A01 T02400074  RH  034%=      5-min Rain = 0
KST2 191831Z 19010KT 24/07 A2992 RMK A01 T02420073  RH  034%=      5-min Rain = 0
KST2 191832Z 19009KT 24/07 A2992 RMK A01 T02420074  RH  034%=      5-min Rain = 0
KST2 191833Z 21008KT 24/08 A2992 RMK A01 T02440075  RH  034%=      5-min Rain = 0
KST2 191834Z 20009KT 24/08 A2992 RMK A01 T02440075  RH  034%=      5-min Rain = 0
KST2 191835Z 20009KT 24/08 A2992 RMK A01 T02440075  RH  034%=      5-min Rain = 0
KST2 191836Z 21011KT 24/07 A2992 RMK A01 T02440074  RH  034%=      5-min Rain = 0
KST2 191837Z 19010KT 25/08 A2992 RMK A01 T02450076  RH  034%=      5-min Rain = 0
KST2 191838Z 17010KT 25/08 A2992 RMK A01 T02470079  RH  034%=      5-min Rain = 0
KST2 191839Z 17008KT 25/08 A2992 RMK A01 T02470076  RH  034%=      5-min Rain = 0
KST2 191840Z 17009KT 25/07 A2992 RMK A01 T02450073  RH  033%=      5-min Rain = 0
KST2 191841Z 19008KT 24/07 A2992 RMK A01 T02440072  RH  033%=      5-min Rain = 0
KST2 191842Z 19011KT 24/07 A2992 RMK A01 T02440072  RH  033%=      5-min Rain = 0
KST2 191843Z 19010KT 25/07 A2992 RMK A01 T02460069  RH  032%=      5-min Rain = 0
KST2 191844Z 19009KT 25/07 A2992 RMK A01 T02460066  RH  032%=      5-min Rain = 0
KST2 191845Z 20009KT 25/07 A2992 RMK A01 T02460068  RH  032%=      5-min Rain = 0
KST2 191846Z 19010KT 25/07 A2991 RMK A01 T02470069  RH  032%=      5-min Rain = 0
KST2 191847Z 19010KT 25/08 A2991 RMK A01 T02490076  RH  033%=      5-min Rain = 0
KST2 191848Z 18012KT 25/07 A2991 RMK A01 T02510073  RH  032%=      5-min Rain = 0
KST2 191849Z 18014KT 25/07 A2991 RMK A01 T02510067  RH  031%=      5-min Rain = 0
KST2 191850Z 19012KT 25/07 A2991 RMK A01 T02490066  RH  031%=      5-min Rain = 0
KST2 191851Z 18013KT 25/07 A2991 RMK A01 T02480067  RH  031%=      5-min Rain = 0
KST2 191852Z 18014KT 25/07 A2991 RMK A01 T02480070  RH  032%=      5-min Rain = 0
KST2 191853Z 18013KT 25/07 A2991 RMK A01 T02480067  RH  031%=      5-min Rain = 0
KST2 191854Z 17011KT 25/07 A2991 RMK A01 T02470070  RH  032%=      5-min Rain = 0
KST2 191855Z 18012KT 25/07 A2991 RMK A01 T02480070  RH  032%=      5-min Rain = 0
KST2 191856Z 16011KT 25/07 A2991 RMK A01 T02490069  RH  032%=      5-min Rain = 0
KST2 191857Z 17011KT 25/08 A2991 RMK A01 T02500075  RH  033%=      5-min Rain = 0
KST2 191858Z 17011KT 25/07 A2991 RMK A01 T02510074  RH  032%=      5-min Rain = 0
KST2 191859Z 18009KT 25/07 A2991 RMK A01 T02500070  RH  032%=      5-min Rain = 0
KST2 191900Z 17012KT 25/07 A2991 RMK A01 T02500071  RH  032%=      5-min Rain = 0
KST2 191901Z 17014KT 25/07 A2991 RMK A01 T02500073  RH  032%=      5-min Rain = 0
KST2 191902Z 17012KT 25/07 A2991 RMK A01 T02490072  RH  032%=      5-min Rain = 0
KST2 191903Z 17012KT 25/07 A299 RMK A01 T02480072  RH  032%=      5-min Rain = 0
KST2 191904Z 16011KT 25/07 A299 RMK A01 T02470071  RH  032%=      5-min Rain = 0
KST2 191905Z 17010KT 25/07 A299 RMK A01 T02480074  RH  033%=      5-min Rain = 0
KST2 191906Z 16009KT 25/07 A299 RMK A01 T02480074  RH  033%=      5-min Rain = 0
KST2 191907Z 18011KT 25/07 A299 RMK A01 T02470073  RH  033%=      5-min Rain = 0
KST2 191908Z 19009KT 25/07 A299 RMK A01 T02470070  RH  032%=      5-min Rain = 0
KST2 191909Z 18008KT 25/07 A299 RMK A01 T02470068  RH  032%=      5-min Rain = 0
KST2 191910Z 16010KT 25/07 A299 RMK A01 T02470074  RH  033%=      5-min Rain = 0
KST2 191911Z 16010KT 25/07 A299 RMK A01 T02490071  RH  032%=      5-min Rain = 0
KST2 191912Z 17008KT 25/07 A299 RMK A01 T02490073  RH  032%=      5-min Rain = 0
KST2 191913Z 18008KT 25/07 A299 RMK A01 T02500072  RH  032%=      5-min Rain = 0
KST2 191914Z 17012KT 25/07 A2989 RMK A01 T02520070  RH  031%=      5-min Rain = 0
KST2 191915Z 18014G19KT 25/06 A2989 RMK A01 T02520063  RH  030%=      5-min Rain = 0
KST2 191916Z 17013KT 25/07 A2989 RMK A01 T02530068  RH  030%=      5-min Rain = 0
KST2 191917Z 19014KT 26/07 A2989 RMK A01 T02550065  RH  030%=      5-min Rain = 0
KST2 191918Z 18014KT 26/06 A2989 RMK A01 T02560062  RH  029%=      5-min Rain = 0
KST2 191919Z 17011KT 26/06 A2989 RMK A01 T02560062  RH  029%=      5-min Rain = 0
KST2 191920Z 17012KT 26/06 A2989 RMK A01 T02560061  RH  029%=      5-min Rain = 0
KST2 191921Z 18014KT 26/06 A2989 RMK A01 T02550057  RH  028%=      5-min Rain = 0
KST2 191922Z 19013KT 26/05 A2989 RMK A01 T02550053  RH  027%=      5-min Rain = 0
KST2 191923Z 19012KT 25/05 A2989 RMK A01 T02540054  RH  028%=      5-min Rain = 0
KST2 191924Z 18012KT 25/05 A2989 RMK A01 T02540052  RH  027%=      5-min Rain = 0
KST2 191925Z 17012KT 26/06 A2989 RMK A01 T02550057  RH  028%=      5-min Rain = 0
KST2 191926Z 18013KT 26/06 A2989 RMK A01 T02550059  RH  028%=      5-min Rain = 0
KST2 191927Z 16016KT 26/06 A2989 RMK A01 T02550057  RH  028%=      5-min Rain = 0
KST2 191928Z 16015KT 26/06 A2989 RMK A01 T02550055  RH  028%=      5-min Rain = 0
KST2 191929Z 16014KT 26/05 A2988 RMK A01 T02550054  RH  028%=      5-min Rain = 0
KST2 191930Z 18014KT 25/05 A2988 RMK A01 T02540053  RH  027%=      5-min Rain = 0
KST2 191931Z 18012KT 25/05 A2988 RMK A01 T02540052  RH  027%=      5-min Rain = 0
KST2 191932Z 17011KT 26/05 A2988 RMK A01 T02550053  RH  027%=      5-min Rain = 0
KST2 191933Z 17017KT 26/05 A2988 RMK A01 T02560052  RH  027%=      5-min Rain = 0
KST2 191934Z 18016KT 26/05 A2988 RMK A01 T02570046  RH  026%=      5-min Rain = 0
KST2 191935Z 20018KT 26/04 A2988 RMK A01 T02580044  RH  025%=      5-min Rain = 0
KST2 191936Z 19016G22KT 26/04 A2988 RMK A01 T02580040  RH  024%=      5-min Rain = 0
KST2 191937Z 18020KT 26/05 A2988 RMK A01 T02580045  RH  025%=      5-min Rain = 0
KST2 191938Z 18018KT 26/04 A2988 RMK A01 T02580043  RH  025%=      5-min Rain = 0
KST2 191939Z 17017KT 26/05 A2988 RMK A01 T02570047  RH  026%=      5-min Rain = 0
KST2 191940Z 17019KT 26/05 A2988 RMK A01 T02580045  RH  025%=      5-min Rain = 0
KST2 191941Z 17016KT 26/05 A2988 RMK A01 T02570045  RH  026%=      5-min Rain = 0
KST2 191942Z 17016KT 26/05 A2988 RMK A01 T02560045  RH  026%=      5-min Rain = 0
KST2 191943Z 18015KT 26/04 A2988 RMK A01 T02560044  RH  025%=      5-min Rain = 0
KST2 191944Z 18016KT 26/05 A2988 RMK A01 T02560046  RH  026%=      5-min Rain = 0
KST2 191945Z 17016KT 26/05 A2988 RMK A01 T02570046  RH  026%=      5-min Rain = 0
KST2 191946Z 17017KT 26/05 A2988 RMK A01 T02570047  RH  026%=      5-min Rain = 0
KST2 191947Z 16015KT 26/05 A2988 RMK A01 T02580045  RH  025%=      5-min Rain = 0
KST2 191948Z 17016KT 26/05 A2988 RMK A01 T02570046  RH  026%=      5-min Rain = 0
KST2 191949Z 18015KT 26/04 A2988 RMK A01 T02570044  RH  025%=      5-min Rain = 0
KST2 191950Z 18015KT 26/04 A2988 RMK A01 T02570043  RH  025%=      5-min Rain = 0
KST2 191951Z 17013KT 26/05 A2988 RMK A01 T02560046  RH  026%=      5-min Rain = 0
KST2 191952Z 17015KT 26/05 A2988 RMK A01 T02560047  RH  026%=      5-min Rain = 0
KST2 191953Z 16016KT 26/05 A2987 RMK A01 T02560051  RH  027%=      5-min Rain = 0
KST2 191954Z 17014KT 26/05 A2987 RMK A01 T02560054  RH  027%=      5-min Rain = 0
KST2 191955Z 17018KT 26/06 A2987 RMK A01 T02570055  RH  027%=      5-min Rain = 0
KST2 191956Z 18017KT 26/05 A2987 RMK A01 T02560054  RH  027%=      5-min Rain = 0
KST2 191957Z 17014KT 26/05 A2987 RMK A01 T02550053  RH  027%=      5-min Rain = 0
KST2 191958Z 17013KT 26/06 A2987 RMK A01 T02550055  RH  028%=      5-min Rain = 0
KST2 191959Z 18015KT 26/05 A2987 RMK A01 T02550054  RH  028%=      5-min Rain = 0
KST2 192000Z 18016KT 26/05 A2987 RMK A01 T02550052  RH  027%=      5-min Rain = 0
KST2 192001Z 18017KT 26/05 A2987 RMK A01 T02560053  RH  027%=      5-min Rain = 0
KST2 192002Z 18014KT 26/05 A2987 RMK A01 T02560052  RH  027%=      5-min Rain = 0
KST2 192003Z 17014KT 26/05 A2987 RMK A01 T02560054  RH  027%=      5-min Rain = 0
KST2 192004Z 17012KT 26/05 A2987 RMK A01 T02560054  RH  027%=      5-min Rain = 0
KST2 192005Z 18014KT 26/05 A2987 RMK A01 T02550054  RH  027%=      5-min Rain = 0
KST2 192006Z 18016KT 26/05 A2987 RMK A01 T02550052  RH  027%=      5-min Rain = 0
KST2 192007Z 17014KT 26/05 A2987 RMK A01 T02550054  RH  028%=      5-min Rain = 0
KST2 192008Z 17015KT 26/06 A2987 RMK A01 T02550055  RH  028%=      5-min Rain = 0
KST2 192009Z 16013KT 26/06 A2987 RMK A01 T02550056  RH  028%=      5-min Rain = 0
KST2 192010Z 17009KT 25/05 A2987 RMK A01 T02540053  RH  028%=      5-min Rain = 0
KST2 192011Z 17011KT 25/06 A2987 RMK A01 T02530055  RH  028%=      5-min Rain = 0
KST2 192012Z 16013KT 26/06 A2987 RMK A01 T02550061  RH  029%=      5-min Rain = 0
KST2 192013Z 17015KT 26/06 A2987 RMK A01 T02570060  RH  028%=      5-min Rain = 0
KST2 192014Z 17016KT 26/06 A2987 RMK A01 T02580056  RH  027%=      5-min Rain = 0
KST2 192015Z 17016KT 26/06 A2987 RMK A01 T02570055  RH  027%=      5-min Rain = 0
KST2 192016Z 17013KT 26/06 A2987 RMK A01 T02560055  RH  027%=      5-min Rain = 0
KST2 192017Z 18013KT 26/06 A2987 RMK A01 T02560057  RH  028%=      5-min Rain = 0
KST2 192018Z 18015KT 26/05 A2987 RMK A01 T02580049  RH  026%=      5-min Rain = 0
KST2 192019Z 19012KT 26/05 A2987 RMK A01 T02590047  RH  026%=      5-min Rain = 0
KST2 192020Z 20012KT 26/04 A2987 RMK A01 T02610041  RH  024%=      5-min Rain = 0
KST2 192021Z 18012KT 26/05 A2987 RMK A01 T02620046  RH  025%=      5-min Rain = 0
KST2 192022Z 17016KT 26/05 A2987 RMK A01 T02630050  RH  025%=      5-min Rain = 0
KST2 192023Z 16014KT 26/05 A2987 RMK A01 T02620053  RH  026%=      5-min Rain = 0
KST2 192024Z 17019KT 26/05 A2986 RMK A01 T02610050  RH  026%=      5-min Rain = 0
KST2 192025Z 17016KT 26/05 A2986 RMK A01 T02590046  RH  025%=      5-min Rain = 0
KST2 192026Z 16014KT 26/05 A2986 RMK A01 T02580048  RH  026%=      5-min Rain = 0
KST2 192027Z 17014KT 26/05 A2986 RMK A01 T02580049  RH  026%=      5-min Rain = 0
KST2 192028Z 18014KT 26/05 A2986 RMK A01 T02580047  RH  026%=      5-min Rain = 0
KST2 192029Z 18015KT 26/04 A2986 RMK A01 T02580044  RH  025%=      5-min Rain = 0
KST2 192030Z 18011KT 26/04 A2986 RMK A01 T02580042  RH  025%=      5-min Rain = 0
KST2 192031Z 17014KT 26/04 A2986 RMK A01 T02570043  RH  025%=      5-min Rain = 0
KST2 192032Z 18013KT 26/04 A2986 RMK A01 T02560042  RH  025%=      5-min Rain = 0
KST2 192033Z 18016KT 26/04 A2986 RMK A01 T02560044  RH  025%=      5-min Rain = 0
KST2 192034Z 18012KT 26/04 A2986 RMK A01 T02570038  RH  024%=      5-min Rain = 0
KST2 192035Z 18014KT 26/04 A2986 RMK A01 T02570040  RH  025%=      5-min Rain = 0
KST2 192036Z 18012KT 26/04 A2986 RMK A01 T02570043  RH  025%=      5-min Rain = 0
KST2 192037Z 16013KT 26/04 A2986 RMK A01 T02570042  RH  025%=      5-min Rain = 0
KST2 192038Z 16013G18KT 26/04 A2986 RMK A01 T02570041  RH  025%=      5-min Rain = 0
KST2 192039Z 18015KT 26/04 A2986 RMK A01 T02560044  RH  025%=      5-min Rain = 0
KST2 192040Z 18016KT 26/04 A2986 RMK A01 T02570041  RH  025%=      5-min Rain = 0
KST2 192041Z 17015KT 26/04 A2986 RMK A01 T02570042  RH  025%=      5-min Rain = 0
KST2 192042Z 16015KT 26/04 A2986 RMK A01 T02560043  RH  025%=      5-min Rain = 0
KST2 192043Z 16017KT 26/05 A2986 RMK A01 T02560046  RH  026%=      5-min Rain = 0
KST2 192044Z 18016KT 26/05 A2986 RMK A01 T02570047  RH  026%=      5-min Rain = 0
KST2 192045Z 18014KT 26/05 A2986 RMK A01 T02560047  RH  026%=      5-min Rain = 0
KST2 192046Z 17015KT 26/05 A2986 RMK A01 T02570045  RH  026%=      5-min Rain = 0
KST2 192047Z 17013KT 26/05 A2986 RMK A01 T02570050  RH  027%=      5-min Rain = 0
KST2 192048Z 16016KT 26/05 A2986 RMK A01 T02570050  RH  026%=      5-min Rain = 0
KST2 192049Z 17013KT 26/05 A2986 RMK A01 T02560045  RH  026%=      5-min Rain = 0
KST2 192050Z 18013KT 26/05 A2986 RMK A01 T02550046  RH  026%=      5-min Rain = 0
KST2 192051Z 19013KT 26/04 A2986 RMK A01 T02550044  RH  026%=      5-min Rain = 0
KST2 192052Z 18013KT 26/05 A2986 RMK A01 T02560045  RH  026%=      5-min Rain = 0
KST2 192053Z 18015KT 26/04 A2986 RMK A01 T02560043  RH  025%=      5-min Rain = 0
KST2 192054Z 18015KT 26/04 A2986 RMK A01 T02560041  RH  025%=      5-min Rain = 0
KST2 192055Z 19012KT 26/04 A2986 RMK A01 T02560041  RH  025%=      5-min Rain = 0
KST2 192056Z 19014KT 26/04 A2986 RMK A01 T02560041  RH  025%=      5-min Rain = 0
KST2 192057Z 18015KT 26/04 A2986 RMK A01 T02560041  RH  025%=      5-min Rain = 0
KST2 192058Z 17015KT 26/04 A2986 RMK A01 T02560040  RH  025%=      5-min Rain = 0
KST2 192059Z 17013KT 26/05 A2986 RMK A01 T02560045  RH  026%=      5-min Rain = 0
KST2 192100Z 17014KT 26/04 A2986 RMK A01 T02560042  RH  025%=      5-min Rain = 0
KST2 192101Z 18016KT 26/04 A2985 RMK A01 T02560041  RH  025%=      5-min Rain = 0
KST2 192102Z 18018KT 26/04 A2985 RMK A01 T02560037  RH  024%=      5-min Rain = 0
KST2 192103Z 17014KT 26/04 A2985 RMK A01 T02560038  RH  024%=      5-min Rain = 0
KST2 192104Z 17016KT 26/04 A2985 RMK A01 T02560039  RH  025%=      5-min Rain = 0
KST2 192105Z 17016KT 26/04 A2985 RMK A01 T02560037  RH  024%=      5-min Rain = 0
KST2 192106Z 17017KT 26/04 A2985 RMK A01 T02560036  RH  024%=      5-min Rain = 0
KST2 192107Z 18018KT 26/03 A2985 RMK A01 T02570034  RH  024%=      5-min Rain = 0
KST2 192108Z 19017KT 26/03 A2985 RMK A01 T02580033  RH  023%=      5-min Rain = 0
KST2 192109Z 19016KT 26/03 A2985 RMK A01 T02580031  RH  023%=      5-min Rain = 0
KST2 192110Z 19018KT 26/03 A2985 RMK A01 T02580028  RH  023%=      5-min Rain = 0
KST2 192111Z 19015KT 26/03 A2985 RMK A01 T02570028  RH  023%=      5-min Rain = 0
KST2 192112Z 19016KT 26/03 A2985 RMK A01 T02570028  RH  023%=      5-min Rain = 0
KST2 192113Z 19015KT 26/03 A2985 RMK A01 T02570028  RH  023%=      5-min Rain = 0
KST2 192114Z 19013KT 26/03 A2985 RMK A01 T02580029  RH  023%=      5-min Rain = 0
KST2 192115Z 19016KT 26/03 A2985 RMK A01 T02590030  RH  023%=      5-min Rain = 0
KST2 192116Z 18015KT 26/03 A2985 RMK A01 T02580029  RH  023%=      5-min Rain = 0
KST2 192117Z 19013KT 26/03 A2985 RMK A01 T02580031  RH  023%=      5-min Rain = 0
KST2 192118Z 18013KT 26/03 A2985 RMK A01 T02580030  RH  023%=      5-min Rain = 0
KST2 192119Z 19015KT 26/03 A2985 RMK A01 T02590030  RH  023%=      5-min Rain = 0
KST2 192120Z 18015KT 26/03 A2985 RMK A01 T02590031  RH  023%=      5-min Rain = 0
KST2 192121Z 18014KT 26/03 A2985 RMK A01 T02590032  RH  023%=      5-min Rain = 0
KST2 192122Z 17015KT 26/03 A2985 RMK A01 T02580033  RH  023%=      5-min Rain = 0
KST2 192123Z 18014KT 26/04 A2985 RMK A01 T02580037  RH  024%=      5-min Rain = 0
KST2 192124Z 18013KT 26/04 A2985 RMK A01 T02590037  RH  024%=      5-min Rain = 0
KST2 192125Z 18013KT 26/04 A2985 RMK A01 T02590037  RH  024%=      5-min Rain = 0
KST2 192126Z 19011KT 26/04 A2985 RMK A01 T02580039  RH  024%=      5-min Rain = 0
KST2 192127Z 19011KT 26/04 A2985 RMK A01 T02590037  RH  024%=      5-min Rain = 0
KST2 192128Z 19013KT 26/04 A2985 RMK A01 T02590036  RH  024%=      5-min Rain = 0
KST2 192129Z 18012KT 26/04 A2984 RMK A01 T02590037  RH  024%=      5-min Rain = 0
KST2 192130Z 18011KT 26/04 A2984 RMK A01 T02590039  RH  024%=      5-min Rain = 0
KST2 192131Z 18013KT 26/04 A2984 RMK A01 T02600038  RH  024%=      5-min Rain = 0
KST2 192132Z 18014KT 26/04 A2984 RMK A01 T02600039  RH  024%=      5-min Rain = 0
KST2 192133Z 18012KT 26/04 A2984 RMK A01 T02600039  RH  024%=      5-min Rain = 0
KST2 192134Z 17016KT 26/04 A2984 RMK A01 T02600040  RH  024%=      5-min Rain = 0
KST2 192135Z 18015KT 26/04 A2984 RMK A01 T02600044  RH  025%=      5-min Rain = 0
KST2 192136Z 18014KT 26/04 A2984 RMK A01 T02600042  RH  025%=      5-min Rain = 0
KST2 192137Z 18016KT 26/04 A2984 RMK A01 T02590042  RH  025%=      5-min Rain = 0
KST2 192138Z 18016KT 26/04 A2984 RMK A01 T02590041  RH  024%=      5-min Rain = 0
KST2 192139Z 18018KT 26/04 A2984 RMK A01 T02580040  RH  024%=      5-min Rain = 0
KST2 192140Z 18016KT 26/04 A2984 RMK A01 T02580040  RH  024%=      5-min Rain = 0
KST2 192141Z 18015KT 26/04 A2984 RMK A01 T02580039  RH  024%=      5-min Rain = 0
KST2 192142Z 18016KT 26/04 A2984 RMK A01 T02580040  RH  024%=      5-min Rain = 0
KST2 192143Z 19015KT 26/04 A2984 RMK A01 T02580040  RH  025%=      5-min Rain = 0
KST2 192144Z 18016KT 26/04 A2984 RMK A01 T02590041  RH  025%=      5-min Rain = 0
KST2 192145Z 18013KT 26/04 A2984 RMK A01 T02580040  RH  024%=      5-min Rain = 0
KST2 192146Z 19012KT 26/04 A2984 RMK A01 T02580041  RH  025%=      5-min Rain = 0
KST2 192147Z 19014KT 26/04 A2984 RMK A01 T02580040  RH  024%=      5-min Rain = 0
KST2 192148Z 18012KT 26/04 A2984 RMK A01 T02580041  RH  025%=      5-min Rain = 0
KST2 192149Z 19013KT 26/04 A2984 RMK A01 T02580043  RH  025%=      5-min Rain = 0
KST2 192150Z 17014KT 26/04 A2984 RMK A01 T02590043  RH  025%=      5-min Rain = 0
KST2 192151Z 18015KT 26/04 A2984 RMK A01 T02590042  RH  025%=      5-min Rain = 0
KST2 192152Z 17014KT 26/04 A2984 RMK A01 T02590041  RH  024%=      5-min Rain = 0
KST2 192153Z 17013KT 26/04 A2984 RMK A01 T02580042  RH  025%=      5-min Rain = 0
KST2 192154Z 17012KT 26/04 A2984 RMK A01 T02580044  RH  025%=      5-min Rain = 0
KST2 192155Z 18011KT 26/05 A2984 RMK A01 T02580045  RH  025%=      5-min Rain = 0
KST2 192156Z 17013KT 26/04 A2984 RMK A01 T02580044  RH  025%=      5-min Rain = 0
KST2 192157Z 17015KT 26/04 A2984 RMK A01 T02580043  RH  025%=      5-min Rain = 0
KST2 192158Z 17014KT 26/04 A2984 RMK A01 T02580041  RH  025%=      5-min Rain = 0
KST2 192159Z 17013KT 26/04 A2984 RMK A01 T02580043  RH  025%=      5-min Rain = 0
KST2 192200Z 16013KT 26/04 A2984 RMK A01 T02570043  RH  025%=      5-min Rain = 0
KST2 192201Z 17014KT 26/04 A2984 RMK A01 T02570042  RH  025%=      5-min Rain = 0
KST2 192202Z 17011KT 26/04 A2984 RMK A01 T02570043  RH  025%=      5-min Rain = 0
KST2 192203Z 17011KT 26/04 A2984 RMK A01 T02570044  RH  025%=      5-min Rain = 0
KST2 192204Z 17011KT 26/04 A2984 RMK A01 T02570044  RH  025%=      5-min Rain = 0
KST2 192205Z 18014KT 26/04 A2984 RMK A01 T02570041  RH  025%=      5-min Rain = 0
KST2 192206Z 18014KT 26/04 A2984 RMK A01 T02570039  RH  024%=      5-min Rain = 0
KST2 192207Z 18013KT 26/04 A2984 RMK A01 T02570038  RH  024%=      5-min Rain = 0
KST2 192208Z 17013KT 26/04 A2984 RMK A01 T02570040  RH  025%=      5-min Rain = 0
KST2 192209Z 17013KT 26/04 A2984 RMK A01 T02580041  RH  025%=      5-min Rain = 0
KST2 192210Z 17015KT 26/04 A2983 RMK A01 T02580040  RH  025%=      5-min Rain = 0
KST2 192211Z 17015KT 26/04 A2983 RMK A01 T02570039  RH  024%=      5-min Rain = 0
KST2 192212Z 18015KT 26/04 A2983 RMK A01 T02580039  RH  024%=      5-min Rain = 0
KST2 192213Z 19013KT 26/04 A2983 RMK A01 T02570038  RH  024%=      5-min Rain = 0
KST2 192214Z 19013KT 26/04 A2983 RMK A01 T02580038  RH  024%=      5-min Rain = 0
KST2 192215Z 19013KT 26/04 A2983 RMK A01 T02570038  RH  024%=      5-min Rain = 0
KST2 192216Z 18012KT 26/04 A2983 RMK A01 T02570039  RH  024%=      5-min Rain = 0
KST2 192217Z 18009KT 26/04 A2984 RMK A01 T02570042  RH  025%=      5-min Rain = 0
KST2 192218Z 18011KT 26/04 A2984 RMK A01 T02560042  RH  025%=      5-min Rain = 0
KST2 192219Z 18012KT 26/04 A2983 RMK A01 T02560042  RH  025%=      5-min Rain = 0
KST2 192220Z 18013KT 26/04 A2983 RMK A01 T02560042  RH  025%=      5-min Rain = 0
KST2 192221Z 18013KT 26/04 A2984 RMK A01 T02560044  RH  026%=      5-min Rain = 0
KST2 192222Z 19014KT 26/04 A2983 RMK A01 T02560043  RH  025%=      5-min Rain = 0
KST2 192223Z 19013KT 26/04 A2984 RMK A01 T02560044  RH  025%=      5-min Rain = 0
KST2 192224Z 19013KT 26/05 A2984 RMK A01 T02560046  RH  026%=      5-min Rain = 0
KST2 192225Z 19012KT 26/05 A2984 RMK A01 T02550046  RH  026%=      5-min Rain = 0
KST2 192226Z 18011KT 26/05 A2984 RMK A01 T02550048  RH  026%=      5-min Rain = 0
KST2 192227Z 18011KT 25/05 A2984 RMK A01 T02540047  RH  026%=      5-min Rain = 0
KST2 192228Z 18011KT 25/05 A2984 RMK A01 T02530047  RH  027%=      5-min Rain = 0
KST2 192229Z 18010KT 25/05 A2983 RMK A01 T02530049  RH  027%=      5-min Rain = 0
KST2 192230Z 18010KT 25/05 A2983 RMK A01 T02520050  RH  027%=      5-min Rain = 0
KST2 192231Z 18009KT 25/05 A2983 RMK A01 T02510052  RH  028%=      5-min Rain = 0
KST2 192232Z 18011KT 25/05 A2983 RMK A01 T02500052  RH  028%=      5-min Rain = 0
KST2 192233Z 18011KT 25/05 A2983 RMK A01 T02500051  RH  028%=      5-min Rain = 0
KST2 192234Z 18012KT 25/05 A2983 RMK A01 T02500053  RH  028%=      5-min Rain = 0
KST2 192235Z 18011KT 25/05 A2983 RMK A01 T02500051  RH  028%=      5-min Rain = 0
KST2 192236Z 18010KT 25/05 A2983 RMK A01 T02500054  RH  028%=      5-min Rain = 0
KST2 192237Z 18009KT 25/06 A2983 RMK A01 T02500055  RH  028%=      5-min Rain = 0
KST2 192238Z 18010KT 25/06 A2983 RMK A01 T02490055  RH  029%=      5-min Rain = 0
KST2 192239Z 18010KT 25/06 A2983 RMK A01 T02490057  RH  029%=      5-min Rain = 0
KST2 192240Z 18010KT 25/06 A2983 RMK A01 T02490058  RH  029%=      5-min Rain = 0
KST2 192241Z 18011KT 25/06 A2983 RMK A01 T02480058  RH  030%=      5-min Rain = 0
KST2 192242Z 18011KT 25/06 A2983 RMK A01 T02480058  RH  029%=      5-min Rain = 0
KST2 192243Z 18011KT 25/06 A2983 RMK A01 T02480059  RH  030%=      5-min Rain = 0
KST2 192244Z 18010KT 25/06 A2983 RMK A01 T02480060  RH  030%=      5-min Rain = 0
KST2 192245Z 18012KT 25/06 A2983 RMK A01 T02470061  RH  030%=      5-min Rain = 0
KST2 192246Z 18012KT 25/06 A2983 RMK A01 T02470059  RH  030%=      5-min Rain = 0
KST2 192247Z 18010KT 25/06 A2983 RMK A01 T02470059  RH  030%=      5-min Rain = 0
KST2 192248Z 18010KT 25/06 A2983 RMK A01 T02470061  RH  030%=      5-min Rain = 0
KST2 192249Z 18010KT 25/06 A2983 RMK A01 T02460062  RH  031%=      5-min Rain = 0
KST2 192250Z 18012KT 25/06 A2983 RMK A01 T02460062  RH  031%=      5-min Rain = 0
KST2 192251Z 18012KT 25/06 A2983 RMK A01 T02450060  RH  030%=      5-min Rain = 0
KST2 192252Z 18012KT 25/06 A2983 RMK A01 T02460061  RH  030%=      5-min Rain = 0
KST2 192253Z 18011KT 25/06 A2983 RMK A01 T02460063  RH  031%=      5-min Rain = 0
KST2 192254Z 18011KT 25/06 A2983 RMK A01 T02450062  RH  031%=      5-min Rain = 0
KST2 192255Z 17012KT 25/06 A2983 RMK A01 T02450062  RH  031%=      5-min Rain = 0
KST2 192256Z 18012KT 25/06 A2983 RMK A01 T02450062  RH  031%=      5-min Rain = 0
KST2 192257Z 18011KT 25/06 A2983 RMK A01 T02450063  RH  031%=      5-min Rain = 0
KST2 192258Z 18012KT 24/06 A2983 RMK A01 T02440063  RH  031%=      5-min Rain = 0
KST2 192259Z 18011KT 24/06 A2983 RMK A01 T02440062  RH  031%=      5-min Rain = 0
KST2 192300Z 18012KT 24/06 A2983 RMK A01 T02430063  RH  031%=      5-min Rain = 0
KST2 192301Z 18012KT 24/06 A2983 RMK A01 T02430064  RH  032%=      5-min Rain = 0
KST2 192302Z 17012KT 24/06 A2983 RMK A01 T02420062  RH  031%=      5-min Rain = 0
KST2 192303Z 17012KT 24/06 A2983 RMK A01 T02420062  RH  032%=      5-min Rain = 0
KST2 192304Z 18012KT 24/06 A2983 RMK A01 T02420062  RH  031%=      5-min Rain = 0
KST2 192305Z 18012KT 24/06 A2983 RMK A01 T02420063  RH  032%=      5-min Rain = 0
KST2 192306Z 17012KT 24/06 A2983 RMK A01 T02410063  RH  032%=      5-min Rain = 0
KST2 192307Z 18011KT 24/06 A2983 RMK A01 T02400063  RH  032%=      5-min Rain = 0
KST2 192308Z 17011KT 24/06 A2983 RMK A01 T02390063  RH  032%=      5-min Rain = 0
KST2 192309Z 17011KT 24/06 A2983 RMK A01 T02390063  RH  032%=      5-min Rain = 0
KST2 192310Z 17011KT 24/06 A2983 RMK A01 T02380063  RH  032%=      5-min Rain = 0
KST2 192311Z 17011KT 24/06 A2983 RMK A01 T02380063  RH  032%=      5-min Rain = 0
KST2 192312Z 17011KT 24/06 A2983 RMK A01 T02370063  RH  033%=      5-min Rain = 0
KST2 192313Z 17011KT 24/06 A2983 RMK A01 T02360063  RH  033%=      5-min Rain = 0
KST2 192314Z 17010KT 24/06 A2983 RMK A01 T02350063  RH  033%=      5-min Rain = 0
KST2 192315Z 17011KT 24/06 A2983 RMK A01 T02350063  RH  033%=      5-min Rain = 0
KST2 192316Z 17010KT 23/06 A2983 RMK A01 T02340064  RH  033%=      5-min Rain = 0
KST2 192317Z 16010KT 23/06 A2983 RMK A01 T02330064  RH  034%=      5-min Rain = 0
KST2 192318Z 16010KT 23/06 A2983 RMK A01 T02320064  RH  034%=      5-min Rain = 0
KST2 192319Z 17010KT 23/06 A2983 RMK A01 T02320064  RH  034%=      5-min Rain = 0
KST2 192320Z 16010KT 23/06 A2983 RMK A01 T02310064  RH  034%=      5-min Rain = 0
KST2 192321Z 17010KT 23/06 A2983 RMK A01 T02310064  RH  034%=      5-min Rain = 0
KST2 192322Z 16010KT 23/06 A2984 RMK A01 T02300064  RH  034%=      5-min Rain = 0
KST2 192323Z 16010KT 23/06 A2984 RMK A01 T02290064  RH  034%=      5-min Rain = 0
KST2 192324Z 16009KT 23/07 A2984 RMK A01 T02280065  RH  035%=      5-min Rain = 0
KST2 192325Z 16009KT 23/07 A2984 RMK A01 T02270065  RH  035%=      5-min Rain = 0
KST2 192326Z 16009KT 23/06 A2984 RMK A01 T02260064  RH  035%=      5-min Rain = 0
KST2 192327Z 16008KT 23/06 A2984 RMK A01 T02250064  RH  035%=      5-min Rain = 0
KST2 192328Z 16009KT 22/06 A2983 RMK A01 T02240064  RH  035%=      5-min Rain = 0
KST2 192329Z 16009KT 22/06 A2983 RMK A01 T02230063  RH  036%=      5-min Rain = 0
KST2 192330Z 16009KT 22/06 A2983 RMK A01 T02220064  RH  036%=      5-min Rain = 0
KST2 192331Z 16009KT 22/06 A2983 RMK A01 T02210063  RH  036%=      5-min Rain = 0
KST2 192332Z 16009KT 22/06 A2983 RMK A01 T02200064  RH  036%=      5-min Rain = 0
KST2 192333Z 16008KT 22/06 A2983 RMK A01 T02190064  RH  037%=      5-min Rain = 0
KST2 192334Z 16008KT 22/06 A2983 RMK A01 T02180064  RH  037%=      5-min Rain = 0
KST2 192335Z 15008KT 22/07 A2983 RMK A01 T02160065  RH  037%=      5-min Rain = 0
KST2 192336Z 15009KT 22/06 A2983 RMK A01 T02150064  RH  038%=      5-min Rain = 0
KST2 192337Z 15009KT 21/06 A2983 RMK A01 T02140064  RH  038%=      5-min Rain = 0
KST2 192338Z 15008KT 21/06 A2983 RMK A01 T02130064  RH  038%=      5-min Rain = 0
KST2 192339Z 15008KT 21/06 A2983 RMK A01 T02120064  RH  038%=      5-min Rain = 0
KST2 192340Z 15009KT 21/06 A2983 RMK A01 T02110064  RH  038%=      5-min Rain = 0
KST2 192341Z 15008KT 21/06 A2983 RMK A01 T02100064  RH  039%=      5-min Rain = 0
KST2 192342Z 15008KT 21/06 A2983 RMK A01 T02100064  RH  039%=      5-min Rain = 0
KST2 192343Z 15009KT 21/06 A2983 RMK A01 T02080064  RH  039%=      5-min Rain = 0
KST2 192344Z 15008KT 21/07 A2983 RMK A01 T02080065  RH  039%=      5-min Rain = 0
KST2 192345Z 15008KT 21/07 A2983 RMK A01 T02070065  RH  040%=      5-min Rain = 0
KST2 192346Z 15008KT 21/07 A2983 RMK A01 T02060065  RH  040%=      5-min Rain = 0
KST2 192347Z 15008KT 21/07 A2983 RMK A01 T02050065  RH  040%=      5-min Rain = 0
KST2 192348Z 15008KT 21/07 A2983 RMK A01 T02050065  RH  040%=      5-min Rain = 0
KST2 192349Z 15009KT 20/07 A2983 RMK A01 T02040065  RH  040%=      5-min Rain = 0
KST2 192350Z 15008KT 20/07 A2983 RMK A01 T02030065  RH  041%=      5-min Rain = 0
KST2 192351Z 15008KT 20/07 A2983 RMK A01 T02020065  RH  041%=      5-min Rain = 0
KST2 192352Z 15008KT 20/07 A2983 RMK A01 T02010065  RH  041%=      5-min Rain = 0
KST2 192353Z 15008KT 20/07 A2983 RMK A01 T02010066  RH  041%=      5-min Rain = 0
KST2 192354Z 15008KT 20/07 A2983 RMK A01 T02000066  RH  042%=      5-min Rain = 0
KST2 192355Z 15008KT 20/07 A2983 RMK A01 T02000066  RH  042%=      5-min Rain = 0
KST2 192356Z 15008KT 20/07 A2983 RMK A01 T01990066  RH  042%=      5-min Rain = 0
KST2 192357Z 15008KT 20/07 A2983 RMK A01 T01970066  RH  042%=      5-min Rain = 0
KST2 192358Z 15008KT 20/07 A2983 RMK A01 T01960066  RH  043%=      5-min Rain = 0
KST2 192359Z 15008KT 20/07 A2983 RMK A01 T01950066  RH  043%=      5-min Rain = 0
KST2 200000Z 15008KT 19/07 A2983 RMK A01 T01940066  RH  043%=      5-min Rain = 0
KST2 200001Z 15008KT 19/07 A2983 RMK A01 T01930066  RH  043%=      5-min Rain = 0
KST2 200002Z 15008KT 19/07 A2983 RMK A01 T01920066  RH  044%=      5-min Rain = 0
KST2 200003Z 15008KT 19/07 A2983 RMK A01 T01910066  RH  044%=      5-min Rain = 0
KST2 200004Z 15008KT 19/07 A2983 RMK A01 T01900066  RH  044%=      5-min Rain = 0
KST2 200005Z 15008KT 19/07 A2983 RMK A01 T01890065  RH  044%=      5-min Rain = 0
KST2 200006Z 15008KT 19/07 A2983 RMK A01 T01880065  RH  045%=      5-min Rain = 0
KST2 200007Z 15008KT 19/07 A2983 RMK A01 T01870065  RH  045%=      5-min Rain = 0
KST2 200008Z 14008KT 19/07 A2983 RMK A01 T01860065  RH  045%=      5-min Rain = 0
KST2 200009Z 14008KT 19/07 A2983 RMK A01 T01850065  RH  046%=      5-min Rain = 0
KST2 200010Z 14008KT 18/07 A2983 RMK A01 T01840066  RH  046%=      5-min Rain = 0
KST2 200011Z 14008KT 18/07 A2983 RMK A01 T01830066  RH  046%=      5-min Rain = 0
KST2 200012Z 14008KT 18/07 A2983 RMK A01 T01820066  RH  047%=      5-min Rain = 0
KST2 200013Z 14008KT 18/07 A2983 RMK A01 T01810066  RH  047%=      5-min Rain = 0
KST2 200014Z 14008KT 18/07 A2983 RMK A01 T01800066  RH  047%=      5-min Rain = 0
KST2 200015Z 14008KT 18/07 A2983 RMK A01 T01790066  RH  047%=      5-min Rain = 0
KST2 200016Z 14008KT 18/07 A2983 RMK A01 T01790066  RH  048%=      5-min Rain = 0
KST2 200017Z 14008KT 18/07 A2983 RMK A01 T01790067  RH  048%=      5-min Rain = 0
KST2 200018Z 14008KT 18/07 A2983 RMK A01 T01780067  RH  048%=      5-min Rain = 0
KST2 200019Z 14009KT 18/07 A2983 RMK A01 T01780067  RH  048%=      5-min Rain = 0
KST2 200020Z 14009KT 18/07 A2983 RMK A01 T01780067  RH  048%=      5-min Rain = 0
KST2 200021Z 14009KT 18/07 A2983 RMK A01 T01780067  RH  048%=      5-min Rain = 0
KST2 200022Z 14009KT 18/07 A2983 RMK A01 T01780067  RH  048%=      5-min Rain = 0
KST2 200023Z 14008KT 18/07 A2983 RMK A01 T01780067  RH  048%=      5-min Rain = 0
KST2 200024Z 14008KT 18/07 A2983 RMK A01 T01780067  RH  048%=      5-min Rain = 0
KST2 200025Z 14008KT 18/07 A2983 RMK A01 T01780067  RH  048%=      5-min Rain = 0
KST2 200026Z 14008KT 18/07 A2983 RMK A01 T01780068  RH  048%=      5-min Rain = 0
KST2 200027Z 14008KT 18/07 A2983 RMK A01 T01770068  RH  049%=      5-min Rain = 0
KST2 200028Z 14008KT 18/07 A2983 RMK A01 T01770067  RH  049%=      5-min Rain = 0
KST2 200029Z 14008KT 18/07 A2983 RMK A01 T01760067  RH  049%=      5-min Rain = 0
KST2 200030Z 14008KT 18/07 A2983 RMK A01 T01760067  RH  049%=      5-min Rain = 0
KST2 200031Z 14008KT 18/07 A2983 RMK A01 T01760067  RH  049%=      5-min Rain = 0
KST2 200032Z 14007KT 18/07 A2983 RMK A01 T01750067  RH  049%=      5-min Rain = 0
KST2 200033Z 14007KT 18/07 A2983 RMK A01 T01750067  RH  049%=      5-min Rain = 0
KST2 200034Z 14007KT 18/07 A2983 RMK A01 T01750067  RH  049%=      5-min Rain = 0
KST2 200035Z 14008KT 18/07 A2983 RMK A01 T01750067  RH  049%=      5-min Rain = 0
KST2 200036Z 14008KT 17/07 A2983 RMK A01 T01740067  RH  049%=      5-min Rain = 0
KST2 200037Z 13008KT 17/07 A2983 RMK A01 T01740067  RH  049%=      5-min Rain = 0
KST2 200038Z 13008KT 17/07 A2983 RMK A01 T01740067  RH  050%=      5-min Rain = 0
KST2 200039Z 13008KT 17/07 A2983 RMK A01 T01740067  RH  050%=      5-min Rain = 0
KST2 200040Z 13009KT 17/07 A2983 RMK A01 T01730067  RH  050%=      5-min Rain = 0
KST2 200041Z 13009KT 17/07 A2983 RMK A01 T01730067  RH  050%=      5-min Rain = 0
KST2 200042Z 14008KT 17/07 A2983 RMK A01 T01730067  RH  050%=      5-min Rain = 0
KST2 200043Z 14008KT 17/07 A2983 RMK A01 T01730067  RH  050%=      5-min Rain = 0
KST2 200044Z 14008KT 17/07 A2983 RMK A01 T01730067  RH  050%=      5-min Rain = 0
KST2 200045Z 14008KT 17/07 A2983 RMK A01 T01730067  RH  050%=      5-min Rain = 0
KST2 200046Z 14008KT 17/07 A2983 RMK A01 T01720067  RH  050%=      5-min Rain = 0
KST2 200047Z 14008KT 17/07 A2983 RMK A01 T01720067  RH  050%=      5-min Rain = 0
KST2 200048Z 14007KT 17/07 A2983 RMK A01 T01710067  RH  050%=      5-min Rain = 0
KST2 200049Z 14007KT 17/07 A2983 RMK A01 T01700066  RH  050%=      5-min Rain = 0
KST2 200050Z 14007KT 17/07 A2983 RMK A01 T01700066  RH  050%=      5-min Rain = 0
KST2 200051Z 14008KT 17/07 A2983 RMK A01 T01690066  RH  051%=      5-min Rain = 0
KST2 200052Z 14008KT 17/07 A2983 RMK A01 T01690065  RH  051%=      5-min Rain = 0
KST2 200053Z 14008KT 17/07 A2983 RMK A01 T01680065  RH  051%=      5-min Rain = 0
KST2 200054Z 14007KT 17/06 A2983 RMK A01 T01680064  RH  050%=      5-min Rain = 0
KST2 200055Z 14007KT 17/06 A2983 RMK A01 T01670064  RH  051%=      5-min Rain = 0
KST2 200056Z 14007KT 17/06 A2983 RMK A01 T01670064  RH  051%=      5-min Rain = 0
KST2 200057Z 14007KT 17/06 A2984 RMK A01 T01670064  RH  051%=      5-min Rain = 0
KST2 200058Z 14007KT 17/06 A2984 RMK A01 T01670064  RH  051%=      5-min Rain = 0
KST2 200059Z 14007KT 17/06 A2984 RMK A01 T01670064  RH  051%=      5-min Rain = 0
KST2 200100Z 14007KT 17/06 A2984 RMK A01 T01670064  RH  051%=      5-min Rain = 0
KST2 200101Z 14007KT 17/06 A2984 RMK A01 T01660064  RH  051%=      5-min Rain = 0
KST2 200102Z 14008KT 17/07 A2984 RMK A01 T01660065  RH  051%=      5-min Rain = 0
KST2 200103Z 14008KT 17/06 A2984 RMK A01 T01650064  RH  051%=      5-min Rain = 0
KST2 200104Z 14008KT 17/07 A2983 RMK A01 T01650065  RH  051%=      5-min Rain = 0
KST2 200105Z 14008KT 16/07 A2983 RMK A01 T01640065  RH  052%=      5-min Rain = 0
KST2 200106Z 14008KT 16/07 A2983 RMK A01 T01640065  RH  052%=      5-min Rain = 0
KST2 200107Z 14008KT 16/07 A2983 RMK A01 T01640065  RH  052%=      5-min Rain = 0
KST2 200108Z 14009KT 16/07 A2983 RMK A01 T01630065  RH  052%=      5-min Rain = 0
KST2 200109Z 14008KT 16/07 A2983 RMK A01 T01630065  RH  052%=      5-min Rain = 0
KST2 200110Z 14008KT 16/07 A2983 RMK A01 T01620065  RH  052%=      5-min Rain = 0
KST2 200111Z 14008KT 16/07 A2983 RMK A01 T01620065  RH  053%=      5-min Rain = 0
KST2 200112Z 14009KT 16/07 A2983 RMK A01 T01620065  RH  053%=      5-min Rain = 0
KST2 200113Z 14009KT 16/07 A2983 RMK A01 T01620065  RH  053%=      5-min Rain = 0
KST2 200114Z 14009KT 16/07 A2983 RMK A01 T01620066  RH  053%=      5-min Rain = 0
KST2 200115Z 15009KT 16/07 A2983 RMK A01 T01610065  RH  053%=      5-min Rain = 0
KST2 200116Z 15009KT 16/07 A2983 RMK A01 T01610066  RH  053%=      5-min Rain = 0
KST2 200117Z 15009KT 16/07 A2983 RMK A01 T01610066  RH  053%=      5-min Rain = 0
KST2 200118Z 15009KT 16/07 A2983 RMK A01 T01610066  RH  053%=      5-min Rain = 0
KST2 200119Z 15009KT 16/07 A2983 RMK A01 T01610066  RH  053%=      5-min Rain = 0
KST2 200120Z 15009KT 16/07 A2983 RMK A01 T01610066  RH  053%=      5-min Rain = 0
KST2 200121Z 15009KT 16/07 A2983 RMK A01 T01610066  RH  053%=      5-min Rain = 0
KST2 200122Z 15009KT 16/07 A2983 RMK A01 T01610065  RH  053%=      5-min Rain = 0
KST2 200123Z 15009KT 16/07 A2983 RMK A01 T01620066  RH  053%=      5-min Rain = 0
KST2 200124Z 15008KT 16/07 A2984 RMK A01 T01620066  RH  053%=      5-min Rain = 0
KST2 200125Z 15008KT 16/07 A2984 RMK A01 T01620066  RH  053%=      5-min Rain = 0
KST2 200126Z 16007KT 16/07 A2984 RMK A01 T01620066  RH  053%=      5-min Rain = 0
KST2 200127Z 16007KT 16/07 A2984 RMK A01 T01610066  RH  053%=      5-min Rain = 0
KST2 200128Z 16007KT 16/07 A2984 RMK A01 T01590065  RH  054%=      5-min Rain = 0
KST2 200129Z 16007KT 16/07 A2984 RMK A01 T01580065  RH  054%=      5-min Rain = 0
KST2 200130Z 16007KT 16/06 A2984 RMK A01 T01570064  RH  054%=      5-min Rain = 0
KST2 200131Z 16007KT 16/06 A2984 RMK A01 T01560064  RH  054%=      5-min Rain = 0
KST2 200132Z 16008KT 16/06 A2984 RMK A01 T01550063  RH  054%=      5-min Rain = 0
KST2 200133Z 16008KT 15/06 A2984 RMK A01 T01540062  RH  054%=      5-min Rain = 0
KST2 200134Z 16008KT 15/06 A2984 RMK A01 T01530061  RH  054%=      5-min Rain = 0
KST2 200135Z 16008KT 15/06 A2984 RMK A01 T01530061  RH  054%=      5-min Rain = 0
KST2 200136Z 16008KT 15/06 A2984 RMK A01 T01520061  RH  054%=      5-min Rain = 0
KST2 200137Z 16008KT 15/06 A2984 RMK A01 T01520061  RH  055%=      5-min Rain = 0
KST2 200138Z 16009KT 15/06 A2984 RMK A01 T01520062  RH  055%=      5-min Rain = 0
KST2 200139Z 16009KT 15/06 A2984 RMK A01 T01510062  RH  055%=      5-min Rain = 0
KST2 200140Z 16009KT 15/06 A2984 RMK A01 T01510062  RH  055%=      5-min Rain = 0
KST2 200141Z 16009KT 15/06 A2984 RMK A01 T01510062  RH  055%=      5-min Rain = 0
KST2 200142Z 16009KT 15/06 A2984 RMK A01 T01510063  RH  056%=      5-min Rain = 0
KST2 200143Z 16009KT 15/06 A2984 RMK A01 T01510063  RH  056%=      5-min Rain = 0
KST2 200144Z 16009KT 15/06 A2984 RMK A01 T01520063  RH  055%=      5-min Rain = 0
KST2 200145Z 16009KT 15/06 A2984 RMK A01 T01530063  RH  055%=      5-min Rain = 0
KST2 200146Z 16009KT 15/06 A2984 RMK A01 T01540063  RH  055%=      5-min Rain = 0
KST2 200147Z 16009KT 16/06 A2984 RMK A01 T01550063  RH  054%=      5-min Rain = 0
KST2 200148Z 16009KT 16/06 A2984 RMK A01 T01550063  RH  054%=      5-min Rain = 0
KST2 200149Z 16009KT 16/06 A2984 RMK A01 T01550063  RH  054%=      5-min Rain = 0
KST2 200150Z 16010KT 16/06 A2984 RMK A01 T01560063  RH  054%=      5-min Rain = 0
KST2 200151Z 16010KT 16/06 A2984 RMK A01 T01560063  RH  054%=      5-min Rain = 0
KST2 200152Z 16010KT 16/06 A2984 RMK A01 T01560063  RH  054%=      5-min Rain = 0
KST2 200153Z 16010KT 16/06 A2984 RMK A01 T01560062  RH  054%=      5-min Rain = 0
KST2 200154Z 16010KT 16/06 A2984 RMK A01 T01560062  RH  054%=      5-min Rain = 0
KST2 200155Z 16010KT 16/06 A2984 RMK A01 T01560062  RH  053%=      5-min Rain = 0
KST2 200156Z 16010KT 16/06 A2984 RMK A01 T01570062  RH  053%=      5-min Rain = 0
KST2 200157Z 16009KT 16/06 A2984 RMK A01 T01570062  RH  053%=      5-min Rain = 0
KST2 200158Z 16009KT 16/06 A2984 RMK A01 T01570062  RH  053%=      5-min Rain = 0
KST2 200159Z 16009KT 16/06 A2984 RMK A01 T01570062  RH  053%=      5-min Rain = 0
KST2 200200Z 16009KT 16/06 A2984 RMK A01 T01570063  RH  053%=      5-min Rain = 0
KST2 200201Z 16009KT 16/06 A2984 RMK A01 T01570063  RH  053%=      5-min Rain = 0
KST2 200202Z 16009KT 16/06 A2984 RMK A01 T01570063  RH  053%=      5-min Rain = 0
KST2 200203Z 16009KT 16/06 A2984 RMK A01 T01560063  RH  054%=      5-min Rain = 0
KST2 200204Z 16009KT 16/06 A2984 RMK A01 T01560062  RH  054%=      5-min Rain = 0
KST2 200205Z 15009KT 16/06 A2984 RMK A01 T01560062  RH  054%=      5-min Rain = 0
KST2 200206Z 16008KT 16/06 A2984 RMK A01 T01560062  RH  054%=      5-min Rain = 0
KST2 200207Z 15009KT 16/06 A2984 RMK A01 T01560063  RH  054%=      5-min Rain = 0
KST2 200208Z 16009KT 16/06 A2984 RMK A01 T01560063  RH  054%=      5-min Rain = 0
KST2 200209Z 15008KT 16/06 A2984 RMK A01 T01560063  RH  054%=      5-min Rain = 0
KST2 200210Z 15008KT 16/06 A2984 RMK A01 T01560063  RH  054%=      5-min Rain = 0
KST2 200211Z 15008KT 16/06 A2984 RMK A01 T01560063  RH  054%=      5-min Rain = 0
KST2 200212Z 15008KT 16/06 A2984 RMK A01 T01550062  RH  054%=      5-min Rain = 0
KST2 200213Z 15008KT 16/06 A2984 RMK A01 T01550063  RH  054%=      5-min Rain = 0
KST2 200214Z 15008KT 16/06 A2984 RMK A01 T01550063  RH  054%=      5-min Rain = 0
KST2 200215Z 15008KT 16/06 A2984 RMK A01 T01550063  RH  054%=      5-min Rain = 0
KST2 200216Z 15008KT 16/06 A2984 RMK A01 T01550063  RH  054%=      5-min Rain = 0
KST2 200217Z 15008KT 16/06 A2984 RMK A01 T01550063  RH  054%=      5-min Rain = 0
KST2 200218Z 15009KT 15/06 A2984 RMK A01 T01540062  RH  054%=      5-min Rain = 0
KST2 200219Z 16009KT 15/06 A2984 RMK A01 T01540063  RH  054%=      5-min Rain = 0
KST2 200220Z 16008KT 15/06 A2984 RMK A01 T01540063  RH  054%=      5-min Rain = 0
KST2 200221Z 16009KT 16/06 A2984 RMK A01 T01550063  RH  054%=      5-min Rain = 0
KST2 200222Z 16009KT 15/06 A2984 RMK A01 T01540063  RH  055%=      5-min Rain = 0
KST2 200223Z 16009KT 15/06 A2984 RMK A01 T01540063  RH  055%=      5-min Rain = 0
KST2 200224Z 16009KT 15/06 A2984 RMK A01 T01540063  RH  055%=      5-min Rain = 0
KST2 200225Z 16009KT 15/06 A2984 RMK A01 T01540063  RH  055%=      5-min Rain = 0
KST2 200226Z 16008KT 16/06 A2984 RMK A01 T01550064  RH  055%=      5-min Rain = 0
KST2 200227Z 16009KT 16/06 A2984 RMK A01 T01560064  RH  055%=      5-min Rain = 0
KST2 200228Z 16009KT 16/06 A2984 RMK A01 T01550064  RH  055%=      5-min Rain = 0
KST2 200229Z 16009KT 16/07 A2984 RMK A01 T01550065  RH  055%=      5-min Rain = 0
KST2 200230Z 16009KT 16/07 A2984 RMK A01 T01550065  RH  055%=      5-min Rain = 0
KST2 200231Z 16009KT 16/07 A2984 RMK A01 T01550066  RH  055%=      5-min Rain = 0
KST2 200232Z 16009KT 16/07 A2984 RMK A01 T01560066  RH  055%=      5-min Rain = 0
KST2 200233Z 17010KT 16/07 A2984 RMK A01 T01580067  RH  055%=      5-min Rain = 0
KST2 200234Z 17010KT 16/07 A2984 RMK A01 T01590068  RH  055%=      5-min Rain = 0
KST2 200235Z 17010KT 16/07 A2984 RMK A01 T01610070  RH  055%=      5-min Rain = 0
KST2 200236Z 17010KT 16/07 A2984 RMK A01 T01620070  RH  055%=      5-min Rain = 0
KST2 200237Z 17010KT 16/07 A2984 RMK A01 T01640072  RH  054%=      5-min Rain = 0
KST2 200238Z 17010KT 17/07 A2984 RMK A01 T01650072  RH  054%=      5-min Rain = 0
KST2 200239Z 17010KT 17/07 A2984 RMK A01 T01660072  RH  054%=      5-min Rain = 0
KST2 200240Z 17010KT 17/07 A2984 RMK A01 T01670072  RH  054%=      5-min Rain = 0
KST2 200241Z 17011KT 17/07 A2984 RMK A01 T01670072  RH  053%=      5-min Rain = 0
KST2 200242Z 17010KT 17/07 A2984 RMK A01 T01670072  RH  053%=      5-min Rain = 0
KST2 200243Z 17011KT 17/07 A2984 RMK A01 T01680073  RH  053%=      5-min Rain = 0
KST2 200244Z 17010KT 17/07 A2984 RMK A01 T01680073  RH  053%=      5-min Rain = 0
KST2 200245Z 17010KT 17/07 A2984 RMK A01 T01680073  RH  053%=      5-min Rain = 0
KST2 200246Z 17010KT 17/07 A2984 RMK A01 T01690073  RH  053%=      5-min Rain = 0
KST2 200247Z 17011KT 17/07 A2984 RMK A01 T01690074  RH  053%=      5-min Rain = 0
KST2 200248Z 17010KT 17/07 A2984 RMK A01 T01690074  RH  053%=      5-min Rain = 0
KST2 200249Z 17010KT 17/07 A2984 RMK A01 T01700074  RH  053%=      5-min Rain = 0
KST2 200250Z 17011KT 17/08 A2984 RMK A01 T01700075  RH  053%=      5-min Rain = 0
KST2 200251Z 17010KT 17/08 A2984 RMK A01 T01700075  RH  053%=      5-min Rain = 0
KST2 200252Z 17011KT 17/08 A2984 RMK A01 T01700075  RH  053%=      5-min Rain = 0
KST2 200253Z 17010KT 17/08 A2984 RMK A01 T01710075  RH  053%=      5-min Rain = 0
KST2 200254Z 17010KT 17/08 A2984 RMK A01 T01710076  RH  053%=      5-min Rain = 0
KST2 200255Z 17011KT 17/08 A2984 RMK A01 T01710076  RH  053%=      5-min Rain = 0
KST2 200256Z 17011KT 17/08 A2984 RMK A01 T01720076  RH  053%=      5-min Rain = 0
KST2 200257Z 17011KT 17/08 A2984 RMK A01 T01720076  RH  053%=      5-min Rain = 0
KST2 200258Z 17011KT 17/08 A2984 RMK A01 T01730077  RH  053%=      5-min Rain = 0
KST2 200259Z 17011KT 17/08 A2984 RMK A01 T01730077  RH  053%=      5-min Rain = 0
KST2 200300Z 17011KT 17/08 A2984 RMK A01 T01730077  RH  053%=      5-min Rain = 0
KST2 200301Z 17011KT 17/08 A2984 RMK A01 T01740077  RH  053%=      5-min Rain = 0
KST2 200302Z 17011KT 17/08 A2984 RMK A01 T01740077  RH  053%=      5-min Rain = 0
KST2 200303Z 17011KT 17/08 A2984 RMK A01 T01740077  RH  053%=      5-min Rain = 0
KST2 200304Z 17011KT 17/08 A2984 RMK A01 T01740078  RH  053%=      5-min Rain = 0
KST2 200305Z 17011KT 17/08 A2984 RMK A01 T01740078  RH  053%=      5-min Rain = 0
KST2 200306Z 17012KT 17/08 A2984 RMK A01 T01740078  RH  053%=      5-min Rain = 0
KST2 200307Z 17012KT 17/08 A2984 RMK A01 T01740078  RH  053%=      5-min Rain = 0
KST2 200308Z 17012KT 18/08 A2984 RMK A01 T01750078  RH  053%=      5-min Rain = 0
KST2 200309Z 17011KT 18/08 A2984 RMK A01 T01750078  RH  053%=      5-min Rain = 0
KST2 200310Z 17010KT 18/08 A2984 RMK A01 T01750078  RH  053%=      5-min Rain = 0
KST2 200311Z 17011KT 17/08 A2984 RMK A01 T01740078  RH  053%=      5-min Rain = 0
KST2 200312Z 17011KT 17/08 A2984 RMK A01 T01740078  RH  053%=      5-min Rain = 0
KST2 200313Z 17011KT 17/08 A2984 RMK A01 T01740078  RH  053%=      5-min Rain = 0
KST2 200314Z 17010KT 17/08 A2984 RMK A01 T01740079  RH  053%=      5-min Rain = 0
KST2 200315Z 17012KT 17/08 A2984 RMK A01 T01740079  RH  053%=      5-min Rain = 0
KST2 200316Z 17011KT 17/08 A2984 RMK A01 T01740078  RH  053%=      5-min Rain = 0
KST2 200317Z 17011KT 17/08 A2984 RMK A01 T01740078  RH  053%=      5-min Rain = 0
KST2 200318Z 17012KT 17/08 A2984 RMK A01 T01740078  RH  053%=      5-min Rain = 0
KST2 200319Z 17011KT 17/08 A2984 RMK A01 T01740078  RH  053%=      5-min Rain = 0
KST2 200320Z 17011KT 17/08 A2984 RMK A01 T01730078  RH  054%=      5-min Rain = 0
KST2 200321Z 17012KT 17/08 A2984 RMK A01 T01730078  RH  054%=      5-min Rain = 0
KST2 200322Z 17012KT 17/08 A2984 RMK A01 T01730078  RH  054%=      5-min Rain = 0
KST2 200323Z 17011KT 17/08 A2984 RMK A01 T01740078  RH  054%=      5-min Rain = 0
KST2 200324Z 17012KT 17/08 A2984 RMK A01 T01730079  RH  054%=      5-min Rain = 0
KST2 200325Z 17012KT 17/08 A2984 RMK A01 T01720079  RH  054%=      5-min Rain = 0
KST2 200326Z 17012KT 17/08 A2984 RMK A01 T01720079  RH  054%=      5-min Rain = 0
KST2 200327Z 17013KT 17/08 A2984 RMK A01 T01730079  RH  054%=      5-min Rain = 0
KST2 200328Z 17012KT 17/08 A2984 RMK A01 T01730079  RH  054%=      5-min Rain = 0
KST2 200329Z 17012KT 17/08 A2984 RMK A01 T01720079  RH  054%=      5-min Rain = 0
KST2 200330Z 17011KT 17/08 A2984 RMK A01 T01720079  RH  054%=      5-min Rain = 0
KST2 200331Z 17011KT 17/08 A2984 RMK A01 T01720079  RH  054%=      5-min Rain = 0
KST2 200332Z 17011KT 17/08 A2984 RMK A01 T01710079  RH  054%=      5-min Rain = 0
KST2 200333Z 17011KT 17/08 A2984 RMK A01 T01710079  RH  055%=      5-min Rain = 0
KST2 200334Z 17010KT 17/08 A2984 RMK A01 T01700079  RH  055%=      5-min Rain = 0
KST2 200335Z 17011KT 17/08 A2984 RMK A01 T01700079  RH  055%=      5-min Rain = 0
KST2 200336Z 17011KT 17/08 A2984 RMK A01 T01690079  RH  055%=      5-min Rain = 0
KST2 200337Z 17011KT 17/08 A2984 RMK A01 T01690079  RH  055%=      5-min Rain = 0
KST2 200338Z 17011KT 17/08 A2984 RMK A01 T01690080  RH  056%=      5-min Rain = 0
KST2 200339Z 17011KT 17/08 A2984 RMK A01 T01690080  RH  056%=      5-min Rain = 0
KST2 200340Z 17011KT 17/08 A2984 RMK A01 T01690080  RH  056%=      5-min Rain = 0
KST2 200341Z 17011KT 17/08 A2984 RMK A01 T01680080  RH  056%=      5-min Rain = 0
KST2 200342Z 17011KT 17/08 A2984 RMK A01 T01680080  RH  056%=      5-min Rain = 0
KST2 200343Z 17011KT 17/08 A2984 RMK A01 T01680080  RH  056%=      5-min Rain = 0
KST2 200344Z 17011KT 17/08 A2984 RMK A01 T01670080  RH  056%=      5-min Rain = 0
KST2 200345Z 17012KT 17/08 A2984 RMK A01 T01670080  RH  056%=      5-min Rain = 0
KST2 200346Z 17011KT 17/08 A2984 RMK A01 T01680080  RH  056%=      5-min Rain = 0
KST2 200347Z 17011KT 17/08 A2985 RMK A01 T01680080  RH  056%=      5-min Rain = 0
KST2 200348Z 17011KT 17/08 A2985 RMK A01 T01680080  RH  056%=      5-min Rain = 0
KST2 200349Z 17011KT 17/08 A2985 RMK A01 T01680081  RH  056%=      5-min Rain = 0
KST2 200350Z 17010KT 17/08 A2985 RMK A01 T01680081  RH  056%=      5-min Rain = 0
KST2 200351Z 17011KT 17/08 A2985 RMK A01 T01680081  RH  056%=      5-min Rain = 0
KST2 200352Z 17012KT 17/08 A2985 RMK A01 T01680081  RH  056%=      5-min Rain = 0
KST2 200353Z 17011KT 17/08 A2985 RMK A01 T01680081  RH  056%=      5-min Rain = 0
KST2 200354Z 17010KT 17/08 A2985 RMK A01 T01680081  RH  057%=      5-min Rain = 0
KST2 200355Z 17011KT 17/08 A2985 RMK A01 T01670081  RH  057%=      5-min Rain = 0
KST2 200356Z 17011KT 17/08 A2985 RMK A01 T01670082  RH  057%=      5-min Rain = 0
KST2 200357Z 17011KT 17/08 A2985 RMK A01 T01670082  RH  057%=      5-min Rain = 0
KST2 200358Z 17011KT 17/08 A2985 RMK A01 T01680082  RH  057%=      5-min Rain = 0
KST2 200359Z 17011KT 17/08 A2985 RMK A01 T01680082  RH  057%=      5-min Rain = 0
KST2 200400Z 17012KT 17/08 A2985 RMK A01 T01670082  RH  057%=      5-min Rain = 0
KST2 200401Z 17012KT 17/08 A2985 RMK A01 T01670083  RH  057%=      5-min Rain = 0
KST2 200402Z 17012KT 17/08 A2985 RMK A01 T01670083  RH  058%=      5-min Rain = 0
KST2 200403Z 17012KT 17/08 A2985 RMK A01 T01670083  RH  058%=      5-min Rain = 0
KST2 200404Z 17012KT 17/08 A2985 RMK A01 T01670083  RH  057%=      5-min Rain = 0
KST2 200405Z 17012KT 17/08 A2985 RMK A01 T01670083  RH  057%=      5-min Rain = 0
KST2 200406Z 17012KT 17/08 A2985 RMK A01 T01670083  RH  057%=      5-min Rain = 0
KST2 200407Z 17011KT 17/08 A2985 RMK A01 T01670083  RH  058%=      5-min Rain = 0
KST2 200408Z 17011KT 17/08 A2985 RMK A01 T01670083  RH  058%=      5-min Rain = 0
KST2 200409Z 17012KT 17/08 A2985 RMK A01 T01660083  RH  058%=      5-min Rain = 0
KST2 200410Z 17012KT 17/08 A2985 RMK A01 T01660083  RH  058%=      5-min Rain = 0
KST2 200411Z 17011KT 17/08 A2985 RMK A01 T01670084  RH  058%=      5-min Rain = 0
KST2 200412Z 17011KT 17/08 A2985 RMK A01 T01670084  RH  058%=      5-min Rain = 0
KST2 200413Z 17011KT 17/08 A2985 RMK A01 T01670084  RH  058%=      5-min Rain = 0
KST2 200414Z 17011KT 17/08 A2985 RMK A01 T01660084  RH  058%=      5-min Rain = 0
KST2 200415Z 17011KT 17/08 A2985 RMK A01 T01660084  RH  058%=      5-min Rain = 0
KST2 200416Z 17010KT 17/08 A2985 RMK A01 T01660084  RH  058%=      5-min Rain = 0
KST2 200417Z 17011KT 17/08 A2985 RMK A01 T01660084  RH  058%=      5-min Rain = 0
KST2 200418Z 17011KT 17/08 A2985 RMK A01 T01650084  RH  059%=      5-min Rain = 0
KST2 200419Z 17011KT 17/08 A2985 RMK A01 T01650084  RH  059%=      5-min Rain = 0
KST2 200420Z 17011KT 17/08 A2985 RMK A01 T01650084  RH  059%=      5-min Rain = 0
KST2 200421Z 17011KT 17/08 A2985 RMK A01 T01650084  RH  059%=      5-min Rain = 0
KST2 200422Z 17011KT 17/08 A2985 RMK A01 T01650084  RH  059%=      5-min Rain = 0
KST2 200423Z 17010KT 17/08 A2985 RMK A01 T01660084  RH  059%=      5-min Rain = 0
KST2 200424Z 17011KT 17/08 A2985 RMK A01 T01660084  RH  059%=      5-min Rain = 0
KST2 200425Z 17011KT 17/09 A2985 RMK A01 T01660085  RH  059%=      5-min Rain = 0
KST2 200426Z 17011KT 17/09 A2985 RMK A01 T01660085  RH  059%=      5-min Rain = 0
KST2 200427Z 17010KT 17/09 A2985 RMK A01 T01650085  RH  059%=      5-min Rain = 0
KST2 200428Z 17010KT 17/09 A2985 RMK A01 T01650085  RH  059%=      5-min Rain = 0
KST2 200429Z 17010KT 17/09 A2985 RMK A01 T01650085  RH  059%=      5-min Rain = 0
KST2 200430Z 17010KT 16/09 A2985 RMK A01 T01640085  RH  059%=      5-min Rain = 0
KST2 200431Z 17010KT 16/09 A2985 RMK A01 T01640085  RH  059%=      5-min Rain = 0
KST2 200432Z 17011KT 16/09 A2985 RMK A01 T01640085  RH  059%=      5-min Rain = 0
KST2 200433Z 17010KT 16/09 A2985 RMK A01 T01640085  RH  059%=      5-min Rain = 0
KST2 200434Z 17009KT 16/09 A2985 RMK A01 T01640085  RH  059%=      5-min Rain = 0
KST2 200435Z 17010KT 16/09 A2985 RMK A01 T01640086  RH  060%=      5-min Rain = 0
KST2 200436Z 17010KT 16/09 A2985 RMK A01 T01640086  RH  060%=      5-min Rain = 0
KST2 200437Z 17010KT 16/09 A2985 RMK A01 T01630085  RH  060%=      5-min Rain = 0
KST2 200438Z 17010KT 16/09 A2985 RMK A01 T01630086  RH  060%=      5-min Rain = 0
KST2 200439Z 17009KT 16/09 A2985 RMK A01 T01630086  RH  060%=      5-min Rain = 0
KST2 200440Z 17009KT 16/09 A2985 RMK A01 T01630085  RH  060%=      5-min Rain = 0
KST2 200441Z 17010KT 16/09 A2985 RMK A01 T01620085  RH  060%=      5-min Rain = 0
KST2 200442Z 17010KT 16/09 A2985 RMK A01 T01610085  RH  060%=      5-min Rain = 0
KST2 200443Z 17010KT 16/09 A2985 RMK A01 T01610085  RH  060%=      5-min Rain = 0
KST2 200444Z 18010KT 16/09 A2985 RMK A01 T01620085  RH  060%=      5-min Rain = 0
KST2 200445Z 17010KT 16/09 A2985 RMK A01 T01610085  RH  060%=      5-min Rain = 0
KST2 200446Z 17009KT 16/09 A2985 RMK A01 T01610085  RH  060%=      5-min Rain = 0
KST2 200447Z 18010KT 16/08 A2985 RMK A01 T01600084  RH  061%=      5-min Rain = 0
KST2 200448Z 18010KT 16/08 A2985 RMK A01 T01600084  RH  061%=      5-min Rain = 0
KST2 200449Z 18010KT 16/08 A2985 RMK A01 T01610084  RH  061%=      5-min Rain = 0
KST2 200450Z 18010KT 16/08 A2985 RMK A01 T01600084  RH  061%=      5-min Rain = 0
KST2 200451Z 18010KT 16/08 A2985 RMK A01 T01600084  RH  061%=      5-min Rain = 0
KST2 200452Z 17010KT 16/08 A2985 RMK A01 T01600084  RH  061%=      5-min Rain = 0
KST2 200453Z 17010KT 16/09 A2985 RMK A01 T01600085  RH  061%=      5-min Rain = 0
KST2 200454Z 17010KT 16/09 A2985 RMK A01 T01600085  RH  061%=      5-min Rain = 0
KST2 200455Z 17010KT 16/09 A2985 RMK A01 T01590085  RH  061%=      5-min Rain = 0
KST2 200456Z 17010KT 16/08 A2985 RMK A01 T01590084  RH  061%=      5-min Rain = 0
KST2 200457Z 17010KT 16/09 A2985 RMK A01 T01590085  RH  061%=      5-min Rain = 0
KST2 200458Z 17010KT 16/08 A2985 RMK A01 T01590084  RH  061%=      5-min Rain = 0
KST2 200459Z 17010KT 16/08 A2985 RMK A01 T01590084  RH  061%=      5-min Rain = 0
KST2 200500Z 17010KT 16/08 A2985 RMK A01 T01580084  RH  061%=      5-min Rain = 0
KST2 200501Z 17009KT 16/09 A2985 RMK A01 T01580085  RH  062%=      5-min Rain = 0
KST2 200502Z 17010KT 16/08 A2985 RMK A01 T01580084  RH  062%=      5-min Rain = 0
KST2 200503Z 17011KT 16/09 A2985 RMK A01 T01580085  RH  062%=      5-min Rain = 0
KST2 200504Z 17010KT 16/09 A2985 RMK A01 T01580085  RH  062%=      5-min Rain = 0
KST2 200505Z 17010KT 16/09 A2985 RMK A01 T01580085  RH  062%=      5-min Rain = 0
KST2 200506Z 17010KT 16/09 A2985 RMK A01 T01570085  RH  062%=      5-min Rain = 0
KST2 200507Z 17010KT 16/09 A2985 RMK A01 T01570085  RH  062%=      5-min Rain = 0
KST2 200508Z 17010KT 16/09 A2985 RMK A01 T01570085  RH  062%=      5-min Rain = 0
KST2 200509Z 17010KT 16/09 A2985 RMK A01 T01570085  RH  062%=      5-min Rain = 0
KST2 200510Z 17010KT 16/09 A2985 RMK A01 T01570085  RH  062%=      5-min Rain = 0
KST2 200511Z 17010KT 16/08 A2985 RMK A01 T01570084  RH  062%=      5-min Rain = 0
KST2 200512Z 17010KT 16/09 A2985 RMK A01 T01570085  RH  062%=      5-min Rain = 0
KST2 200513Z 18010KT 16/09 A2985 RMK A01 T01580085  RH  062%=      5-min Rain = 0
KST2 200514Z 17009KT 16/09 A2985 RMK A01 T01580085  RH  062%=      5-min Rain = 0
KST2 200515Z 18010KT 16/09 A2985 RMK A01 T01580085  RH  062%=      5-min Rain = 0
KST2 200516Z 18010KT 16/09 A2985 RMK A01 T01580085  RH  062%=      5-min Rain = 0
KST2 200517Z 18010KT 16/09 A2985 RMK A01 T01590085  RH  061%=      5-min Rain = 0
KST2 200518Z 18009KT 16/09 A2985 RMK A01 T01590085  RH  061%=      5-min Rain = 0
KST2 200519Z 18009KT 16/09 A2985 RMK A01 T01590085  RH  061%=      5-min Rain = 0
KST2 200520Z 18009KT 16/09 A2985 RMK A01 T01590085  RH  061%=      5-min Rain = 0
KST2 200521Z 18009KT 16/09 A2985 RMK A01 T01590085  RH  061%=      5-min Rain = 0
KST2 200522Z 18009KT 16/09 A2985 RMK A01 T01590085  RH  061%=      5-min Rain = 0
KST2 200523Z 18009KT 16/09 A2985 RMK A01 T01580085  RH  062%=      5-min Rain = 0
KST2 200524Z 18009KT 16/09 A2985 RMK A01 T01590085  RH  062%=      5-min Rain = 0
KST2 200525Z 18009KT 16/09 A2985 RMK A01 T01590085  RH  062%=      5-min Rain = 0
KST2 200526Z 18008KT 16/09 A2985 RMK A01 T01590085  RH  062%=      5-min Rain = 0
KST2 200527Z 18009KT 16/09 A2985 RMK A01 T01580085  RH  062%=      5-min Rain = 0
KST2 200528Z 17008KT 16/09 A2985 RMK A01 T01570085  RH  062%=      5-min Rain = 0
KST2 200529Z 17008KT 16/09 A2985 RMK A01 T01570085  RH  062%=      5-min Rain = 0
KST2 200530Z 17007KT 16/09 A2985 RMK A01 T01570085  RH  062%=      5-min Rain = 0
KST2 200531Z 17007KT 16/09 A2985 RMK A01 T01570085  RH  062%=      5-min Rain = 0
KST2 200532Z 17008KT 16/09 A2985 RMK A01 T01570085  RH  062%=      5-min Rain = 0
KST2 200533Z 17007KT 16/09 A2985 RMK A01 T01570085  RH  062%=      5-min Rain = 0
KST2 200534Z 17007KT 16/09 A2985 RMK A01 T01560085  RH  062%=      5-min Rain = 0
KST2 200535Z 17007KT 16/08 A2985 RMK A01 T01550084  RH  063%=      5-min Rain = 0
KST2 200536Z 17007KT 16/09 A2985 RMK A01 T01550085  RH  063%=      5-min Rain = 0
KST2 200537Z 17008KT 15/08 A2985 RMK A01 T01540084  RH  063%=      5-min Rain = 0
KST2 200538Z 17008KT 15/09 A2985 RMK A01 T01540085  RH  063%=      5-min Rain = 0
KST2 200539Z 18008KT 15/09 A2985 RMK A01 T01540085  RH  063%=      5-min Rain = 0
KST2 200540Z 17008KT 15/09 A2985 RMK A01 T01540085  RH  063%=      5-min Rain = 0
KST2 200541Z 17008KT 15/09 A2985 RMK A01 T01540085  RH  063%=      5-min Rain = 0
KST2 200542Z 17008KT 16/09 A2985 RMK A01 T01550086  RH  063%=      5-min Rain = 0
KST2 200543Z 17008KT 16/09 A2985 RMK A01 T01550085  RH  063%=      5-min Rain = 0
KST2 200544Z 17007KT 16/09 A2985 RMK A01 T01550086  RH  063%=      5-min Rain = 0
KST2 200545Z 17007KT 16/09 A2985 RMK A01 T01550086  RH  063%=      5-min Rain = 0
KST2 200546Z 17007KT 15/09 A2985 RMK A01 T01540085  RH  063%=      5-min Rain = 0
KST2 200547Z 17007KT 15/09 A2985 RMK A01 T01540086  RH  063%=      5-min Rain = 0
KST2 200548Z 17007KT 16/09 A2985 RMK A01 T01550086  RH  063%=      5-min Rain = 0
KST2 200549Z 17007KT 15/09 A2985 RMK A01 T01540085  RH  064%=      5-min Rain = 0
KST2 200550Z 16008KT 15/09 A2985 RMK A01 T01530085  RH  064%=      5-min Rain = 0
KST2 200551Z 16008KT 15/09 A2985 RMK A01 T01520085  RH  064%=      5-min Rain = 0
KST2 200552Z 16008KT 15/09 A2985 RMK A01 T01520085  RH  064%=      5-min Rain = 0
KST2 200553Z 16008KT 15/09 A2985 RMK A01 T01520085  RH  064%=      5-min Rain = 0
KST2 200554Z 16009KT 15/09 A2985 RMK A01 T01520085  RH  065%=      5-min Rain = 0
KST2 200555Z 16008KT 15/09 A2985 RMK A01 T01510085  RH  065%=      5-min Rain = 0
KST2 200556Z 16008KT 15/09 A2985 RMK A01 T01510085  RH  065%=      5-min Rain = 0
KST2 200557Z 16008KT 15/09 A2985 RMK A01 T01500085  RH  065%=      5-min Rain = 0
KST2 200558Z 16008KT 15/09 A2985 RMK A01 T01490085  RH  065%=      5-min Rain = 0
KST2 200559Z 16007KT 15/09 A2985 RMK A01 T01480085  RH  066%=      5-min Rain = 0

Page generated in 0.0764 seconds.